Time,TemperatureF,DewpointF,PressureIn,WindDirection,WindDirectionDegrees,WindSpeedMPH,WindSpeedGustMPH,Humidity,HourlyPrecipIn,Conditions,Clouds,dailyrainin,SoftwareType,DateUTC
2013-10-02 00:01:00,77.0,72.8,29.79,SSE,165,5.0,5.0,87,0.00,,,0.00,Wunderground v.1.15,2013-10-02 05:01:00,
2013-10-02 00:02:00,77.0,72.8,29.79,SSE,164,5.0,5.0,87,0.00,,,0.00,Wunderground v.1.15,2013-10-02 05:02:00,
2013-10-02 00:05:00,77.0,72.8,29.79,SSE,150,4.0,9.0,87,0.00,,,0.00,Wunderground v.1.15,2013-10-02 05:05:00,
2013-10-02 00:06:00,77.0,72.8,29.79,SE,143,4.0,9.0,87,0.00,,,0.00,Wunderground v.1.15,2013-10-02 05:06:00,
2013-10-02 00:07:00,77.0,72.8,29.79,SE,140,4.0,9.0,87,0.00,,,0.00,Wunderground v.1.15,2013-10-02 05:07:00,
2013-10-02 00:11:00,77.0,72.8,29.79,South,176,4.0,4.0,87,0.00,,,0.00,Wunderground v.1.15,2013-10-02 05:11:00,
2013-10-02 00:12:00,76.8,72.6,29.79,South,172,4.0,4.0,87,0.00,,,0.00,Wunderground v.1.15,2013-10-02 05:12:00,
2013-10-02 00:13:00,76.8,72.6,29.79,SE,136,4.0,5.0,87,0.00,,,0.00,Wunderground v.1.15,2013-10-02 05:13:00,
2013-10-02 00:15:00,76.8,72.6,29.79,SE,144,4.0,7.0,87,0.00,,,0.00,Wunderground v.1.15,2013-10-02 05:15:00,
2013-10-02 00:18:00,76.8,72.6,29.79,SE,138,3.0,8.0,87,0.00,,,0.00,Wunderground v.1.15,2013-10-02 05:18:00,
2013-10-02 00:21:00,76.8,72.6,29.79,SSE,147,4.0,5.0,87,0.00,,,0.00,Wunderground v.1.15,2013-10-02 05:21:00,
2013-10-02 00:23:00,76.8,72.6,29.79,SSE,148,4.0,5.0,87,0.00,,,0.00,Wunderground v.1.15,2013-10-02 05:23:00,
2013-10-02 00:24:00,76.8,72.6,29.79,ESE,121,4.0,5.0,87,0.00,,,0.00,Wunderground v.1.15,2013-10-02 05:24:00,
2013-10-02 00:25:00,76.8,72.6,29.79,SSE,152,4.0,6.0,87,0.00,,,0.00,Wunderground v.1.15,2013-10-02 05:25:00,
2013-10-02 00:28:00,76.8,72.6,29.79,ESE,107,4.0,6.0,87,0.00,,,0.00,Wunderground v.1.15,2013-10-02 05:28:00,
2013-10-02 00:29:00,76.8,72.6,29.79,SE,143,3.0,6.0,87,0.00,,,0.00,Wunderground v.1.15,2013-10-02 05:29:00,
2013-10-02 00:32:00,76.7,72.5,29.79,SSE,154,4.0,8.0,87,0.00,,,0.00,Wunderground v.1.15,2013-10-02 05:32:00,
2013-10-02 00:34:00,76.7,72.5,29.79,ESE,123,4.0,8.0,87,0.00,,,0.00,Wunderground v.1.15,2013-10-02 05:34:00,
2013-10-02 00:37:00,76.7,72.5,29.79,SSE,154,5.0,8.0,87,0.00,,,0.00,Wunderground v.1.15,2013-10-02 05:37:00,
2013-10-02 00:38:00,76.7,72.5,29.79,SSE,148,5.0,8.0,87,0.00,,,0.00,Wunderground v.1.15,2013-10-02 05:38:00,
2013-10-02 00:39:00,76.7,72.5,29.79,SE,128,5.0,8.0,87,0.00,,,0.00,Wunderground v.1.15,2013-10-02 05:39:00,
2013-10-02 00:43:00,76.8,72.6,29.79,SE,130,4.0,5.0,87,0.00,,,0.00,Wunderground v.1.15,2013-10-02 05:43:00,
2013-10-02 00:44:00,76.8,72.6,29.79,SE,130,3.0,5.0,87,0.00,,,0.00,Wunderground v.1.15,2013-10-02 05:44:00,
2013-10-02 00:46:00,76.8,72.6,29.79,SSE,150,3.0,5.0,87,0.00,,,0.00,Wunderground v.1.15,2013-10-02 05:46:00,
2013-10-02 00:49:00,76.7,72.5,29.79,SSE,158,2.0,5.0,87,0.00,,,0.00,Wunderground v.1.15,2013-10-02 05:49:00,
2013-10-02 00:52:00,76.7,72.5,29.79,SE,130,2.0,2.0,87,0.00,,,0.00,Wunderground v.1.15,2013-10-02 05:52:00,
2013-10-02 00:53:00,76.7,72.5,29.79,SSE,150,2.0,2.0,87,0.00,,,0.00,Wunderground v.1.15,2013-10-02 05:53:00,
2013-10-02 00:55:00,76.7,72.5,29.79,SSE,150,2.0,3.0,87,0.00,,,0.00,Wunderground v.1.15,2013-10-02 05:55:00,
2013-10-02 00:57:00,76.7,72.5,29.79,SE,134,2.0,3.0,87,0.00,,,0.00,Wunderground v.1.15,2013-10-02 05:57:00,
2013-10-02 00:59:00,76.7,72.5,29.79,SE,134,2.0,3.0,87,0.00,,,0.00,Wunderground v.1.15,2013-10-02 05:59:00,
2013-10-02 01:01:00,76.7,72.5,29.79,ESE,117,2.0,2.0,87,0.00,,,0.00,Wunderground v.1.15,2013-10-02 06:01:00,
2013-10-02 01:02:00,76.7,72.5,29.79,SE,131,2.0,5.0,87,0.00,,,0.00,Wunderground v.1.15,2013-10-02 06:02:00,
2013-10-02 01:03:00,76.7,72.5,29.79,SE,133,3.0,5.0,87,0.00,,,0.00,Wunderground v.1.15,2013-10-02 06:03:00,
2013-10-02 01:06:00,76.7,72.5,29.79,SE,127,3.0,5.0,87,0.00,,,0.00,Wunderground v.1.15,2013-10-02 06:06:00,
2013-10-02 01:07:00,76.7,72.5,29.79,SE,127,3.0,5.0,87,0.00,,,0.00,Wunderground v.1.15,2013-10-02 06:07:00,
2013-10-02 01:08:00,76.7,72.9,29.79,SE,128,3.0,5.0,88,0.00,,,0.00,Wunderground v.1.15,2013-10-02 06:08:00,
2013-10-02 01:09:00,76.7,72.9,29.79,SE,128,3.0,5.0,88,0.00,,,0.00,Wunderground v.1.15,2013-10-02 06:09:00,
2013-10-02 01:13:00,76.8,73.0,29.79,SSE,161,2.0,3.0,88,0.00,,,0.00,Wunderground v.1.15,2013-10-02 06:13:00,
2013-10-02 01:15:00,76.8,72.6,29.79,SSE,155,2.0,3.0,87,0.00,,,0.00,Wunderground v.1.15,2013-10-02 06:15:00,
2013-10-02 01:16:00,76.7,72.5,29.79,SSE,158,2.0,3.0,87,0.00,,,0.00,Wunderground v.1.15,2013-10-02 06:16:00,
2013-10-02 01:17:00,76.7,72.9,29.79,South,178,2.0,5.0,88,0.00,,,0.00,Wunderground v.1.15,2013-10-02 06:17:00,
2013-10-02 01:18:00,76.7,72.9,29.79,SE,140,2.0,5.0,88,0.00,,,0.00,Wunderground v.1.15,2013-10-02 06:18:00,
2013-10-02 01:21:00,76.7,72.9,29.79,SE,136,2.0,4.0,88,0.00,,,0.00,Wunderground v.1.15,2013-10-02 06:21:00,
2013-10-02 01:22:00,76.7,72.9,29.79,SE,124,3.0,6.0,88,0.00,,,0.00,Wunderground v.1.15,2013-10-02 06:22:00,
2013-10-02 01:25:00,76.7,72.9,29.79,SSE,162,4.0,6.0,88,0.00,,,0.00,Wunderground v.1.15,2013-10-02 06:25:00,
2013-10-02 01:27:00,76.7,72.9,29.79,SSE,157,4.0,6.0,88,0.00,,,0.00,Wunderground v.1.15,2013-10-02 06:27:00,
2013-10-02 01:28:00,76.7,72.9,29.79,SE,143,3.0,6.0,88,0.00,,,0.00,Wunderground v.1.15,2013-10-02 06:28:00,
2013-10-02 01:32:00,76.7,72.9,29.79,SE,140,3.0,3.0,88,0.00,,,0.00,Wunderground v.1.15,2013-10-02 06:32:00,
2013-10-02 01:33:00,76.7,72.9,29.79,SE,145,3.0,3.0,88,0.00,,,0.00,Wunderground v.1.15,2013-10-02 06:33:00,
2013-10-02 01:34:00,76.7,72.9,29.79,SE,143,2.0,3.0,88,0.00,,,0.00,Wunderground v.1.15,2013-10-02 06:34:00,
2013-10-02 01:35:00,76.7,72.9,29.79,SE,143,2.0,3.0,88,0.00,,,0.00,Wunderground v.1.15,2013-10-02 06:35:00,
2013-10-02 01:38:00,76.7,72.9,29.79,SSE,147,2.0,3.0,88,0.00,,,0.00,Wunderground v.1.15,2013-10-02 06:38:00,
2013-10-02 01:39:00,76.7,72.9,29.79,SSE,148,2.0,3.0,88,0.00,,,0.00,Wunderground v.1.15,2013-10-02 06:39:00,
2013-10-02 01:41:00,76.7,73.2,29.79,SSE,165,2.0,2.0,89,0.00,,,0.00,Wunderground v.1.15,2013-10-02 06:41:00,
2013-10-02 01:42:00,76.7,73.2,29.79,SSE,167,2.0,2.0,89,0.00,,,0.00,Wunderground v.1.15,2013-10-02 06:42:00,
2013-10-02 01:44:00,76.7,73.2,29.79,SSE,167,2.0,2.0,89,0.00,,,0.00,Wunderground v.1.15,2013-10-02 06:44:00,
2013-10-02 01:45:00,76.7,73.2,29.79,SSE,150,2.0,6.0,89,0.00,,,0.00,Wunderground v.1.15,2013-10-02 06:45:00,
2013-10-02 01:47:00,76.7,73.2,29.79,SE,140,3.0,7.0,89,0.00,,,0.00,Wunderground v.1.15,2013-10-02 06:47:00,
2013-10-02 01:48:00,76.5,72.7,29.79,SSE,147,3.0,7.0,88,0.00,,,0.00,Wunderground v.1.15,2013-10-02 06:48:00,
2013-10-02 01:51:00,76.5,73.0,29.79,South,186,3.0,3.0,89,0.00,,,0.00,Wunderground v.1.15,2013-10-02 06:51:00,
2013-10-02 01:52:00,76.5,73.0,29.79,South,186,3.0,3.0,89,0.00,,,0.00,Wunderground v.1.15,2013-10-02 06:52:00,
2013-10-02 01:54:00,76.5,73.0,29.79,SSE,165,3.0,6.0,89,0.00,,,0.00,Wunderground v.1.15,2013-10-02 06:54:00,
2013-10-02 01:55:00,76.5,73.0,29.79,SSE,167,4.0,6.0,89,0.00,,,0.00,Wunderground v.1.15,2013-10-02 06:55:00,
2013-10-02 01:57:00,76.5,73.0,29.79,SE,143,4.0,6.0,89,0.00,,,0.00,Wunderground v.1.15,2013-10-02 06:57:00,
2013-10-02 01:58:00,76.5,73.0,29.79,South,178,3.0,6.0,89,0.00,,,0.00,Wunderground v.1.15,2013-10-02 06:58:00,
2013-10-02 02:01:00,76.5,73.0,29.79,SSE,148,3.0,3.0,89,0.00,,,0.00,Wunderground v.1.15,2013-10-02 07:01:00,
2013-10-02 02:02:00,76.5,73.0,29.79,SSE,148,3.0,3.0,89,0.00,,,0.00,Wunderground v.1.15,2013-10-02 07:02:00,
2013-10-02 02:06:00,76.5,73.0,29.79,SE,137,3.0,6.0,89,0.00,,,0.00,Wunderground v.1.15,2013-10-02 07:06:00,
2013-10-02 02:07:00,76.5,73.0,29.79,SE,137,3.0,6.0,89,0.00,,,0.00,Wunderground v.1.15,2013-10-02 07:07:00,
2013-10-02 02:08:00,76.5,73.0,29.79,SE,138,3.0,6.0,89,0.00,,,0.00,Wunderground v.1.15,2013-10-02 07:08:00,
2013-10-02 02:09:00,76.5,73.0,29.79,SE,144,2.0,6.0,89,0.00,,,0.00,Wunderground v.1.15,2013-10-02 07:09:00,
2013-10-02 02:11:00,76.5,73.0,29.79,SSE,147,2.0,3.0,89,0.00,,,0.00,Wunderground v.1.15,2013-10-02 07:11:00,
2013-10-02 02:16:00,76.5,73.0,29.79,SSE,157,2.0,3.0,89,0.00,,,0.00,Wunderground v.1.15,2013-10-02 07:16:00,
2013-10-02 02:17:00,76.5,73.0,29.79,SSE,160,2.0,3.0,89,0.00,,,0.00,Wunderground v.1.15,2013-10-02 07:17:00,
2013-10-02 02:18:00,76.5,73.0,29.79,SSE,158,2.0,3.0,89,0.00,,,0.00,Wunderground v.1.15,2013-10-02 07:18:00,
2013-10-02 02:21:00,76.5,73.0,29.79,SE,137,2.0,2.0,89,0.00,,,0.00,Wunderground v.1.15,2013-10-02 07:21:00,
2013-10-02 02:22:00,76.5,73.0,29.79,SE,145,2.0,2.0,89,0.00,,,0.00,Wunderground v.1.15,2013-10-02 07:22:00,
2013-10-02 02:23:00,76.5,73.0,29.79,SSE,147,2.0,2.0,89,0.00,,,0.00,Wunderground v.1.15,2013-10-02 07:23:00,
2013-10-02 02:24:00,76.5,73.0,29.79,SSE,154,2.0,6.0,89,0.00,,,0.00,Wunderground v.1.15,2013-10-02 07:24:00,
2013-10-02 02:27:00,76.5,73.0,29.79,SSE,147,3.0,6.0,89,0.00,,,0.00,Wunderground v.1.15,2013-10-02 07:27:00,
2013-10-02 02:32:00,76.5,73.0,29.79,SSE,154,4.0,4.0,89,0.00,,,0.00,Wunderground v.1.15,2013-10-02 07:32:00,
2013-10-02 02:33:00,76.7,73.2,29.79,SSE,155,4.0,7.0,89,0.00,,,0.00,Wunderground v.1.15,2013-10-02 07:33:00,
2013-10-02 02:35:00,76.5,73.0,29.79,SE,145,4.0,7.0,89,0.00,,,0.00,Wunderground v.1.15,2013-10-02 07:35:00,
2013-10-02 02:36:00,76.7,73.2,29.79,SE,145,3.0,7.0,89,0.00,,,0.00,Wunderground v.1.15,2013-10-02 07:36:00,
2013-10-02 02:37:00,76.7,73.2,29.79,SE,133,3.0,7.0,89,0.00,,,0.00,Wunderground v.1.15,2013-10-02 07:37:00,
2013-10-02 02:38:00,76.7,73.2,29.79,SE,131,3.0,7.0,89,0.00,,,0.00,Wunderground v.1.15,2013-10-02 07:38:00,
2013-10-02 02:39:00,76.5,73.0,29.79,SSE,147,4.0,7.0,89,0.00,,,0.00,Wunderground v.1.15,2013-10-02 07:39:00,
2013-10-02 02:42:00,76.5,73.0,29.79,SE,137,5.0,7.0,89,0.00,,,0.00,Wunderground v.1.15,2013-10-02 07:42:00,
2013-10-02 02:47:00,76.5,73.0,29.79,SE,140,5.0,7.0,89,0.00,,,0.00,Wunderground v.1.15,2013-10-02 07:47:00,
2013-10-02 02:48:00,76.5,73.0,29.79,SE,144,4.0,7.0,89,0.00,,,0.00,Wunderground v.1.15,2013-10-02 07:48:00,
2013-10-02 02:51:00,76.5,73.0,29.79,SSE,161,4.0,4.0,89,0.00,,,0.00,Wunderground v.1.15,2013-10-02 07:51:00,
2013-10-02 02:54:00,76.7,73.2,29.79,ESE,119,2.0,6.0,89,0.00,,,0.00,Wunderground v.1.15,2013-10-02 07:54:00,
2013-10-02 02:56:00,76.7,73.2,29.79,SSE,161,3.0,6.0,89,0.00,,,0.00,Wunderground v.1.15,2013-10-02 07:56:00,
2013-10-02 02:57:00,76.7,73.2,29.79,SSE,157,3.0,6.0,89,0.00,,,0.00,Wunderground v.1.15,2013-10-02 07:57:00,
2013-10-02 02:58:00,76.7,73.2,29.79,SSE,147,3.0,6.0,89,0.00,,,0.00,Wunderground v.1.15,2013-10-02 07:58:00,
2013-10-02 02:59:00,76.7,73.2,29.79,SE,143,3.0,6.0,89,0.00,,,0.00,Wunderground v.1.15,2013-10-02 07:59:00,
2013-10-02 03:01:00,76.5,73.0,29.79,SE,136,3.0,5.0,89,0.00,,,0.00,Wunderground v.1.15,2013-10-02 08:01:00,
2013-10-02 03:02:00,76.5,73.0,29.79,SE,136,3.0,5.0,89,0.00,,,0.00,Wunderground v.1.15,2013-10-02 08:02:00,
2013-10-02 03:03:00,76.5,73.0,29.79,SE,140,3.0,5.0,89,0.00,,,0.00,Wunderground v.1.15,2013-10-02 08:03:00,
2013-10-02 03:04:00,76.5,73.0,29.79,SE,140,3.0,5.0,89,0.00,,,0.00,Wunderground v.1.15,2013-10-02 08:04:00,
2013-10-02 03:05:00,76.5,73.0,29.79,SE,140,3.0,5.0,89,0.00,,,0.00,Wunderground v.1.15,2013-10-02 08:05:00,
2013-10-02 03:08:00,76.5,73.0,29.79,SSE,157,3.0,5.0,89,0.00,,,0.00,Wunderground v.1.15,2013-10-02 08:08:00,
2013-10-02 03:11:00,76.5,73.0,29.79,SSW,195,3.0,3.0,89,0.00,,,0.00,Wunderground v.1.15,2013-10-02 08:11:00,
2013-10-02 03:15:00,76.5,73.0,29.79,SSE,155,4.0,6.0,89,0.00,,,0.00,Wunderground v.1.15,2013-10-02 08:15:00,
2013-10-02 03:17:00,76.5,73.0,29.79,SE,141,4.0,6.0,89,0.00,,,0.00,Wunderground v.1.15,2013-10-02 08:17:00,
2013-10-02 03:18:00,76.5,73.0,29.78,SSE,168,4.0,6.0,89,0.00,,,0.00,Wunderground v.1.15,2013-10-02 08:18:00,
2013-10-02 03:19:00,76.5,73.0,29.78,SSE,154,4.0,6.0,89,0.00,,,0.00,Wunderground v.1.15,2013-10-02 08:19:00,
2013-10-02 03:21:00,76.5,73.0,29.78,SSE,147,3.0,3.0,89,0.00,,,0.00,Wunderground v.1.15,2013-10-02 08:21:00,
2013-10-02 03:22:00,76.5,73.0,29.78,SSE,148,3.0,6.0,89,0.00,,,0.00,Wunderground v.1.15,2013-10-02 08:22:00,
2013-10-02 03:25:00,76.5,73.0,29.78,SSE,152,4.0,7.0,89,0.00,,,0.00,Wunderground v.1.15,2013-10-02 08:25:00,
2013-10-02 03:26:00,76.5,73.0,29.78,SE,144,4.0,7.0,89,0.00,,,0.00,Wunderground v.1.15,2013-10-02 08:26:00,
2013-10-02 03:27:00,76.5,73.0,29.78,SE,144,4.0,7.0,89,0.00,,,0.00,Wunderground v.1.15,2013-10-02 08:27:00,
2013-10-02 03:28:00,76.5,73.0,29.78,SE,144,3.0,7.0,89,0.00,,,0.00,Wunderground v.1.15,2013-10-02 08:28:00,
2013-10-02 03:31:00,76.5,73.0,29.78,SSE,147,3.0,5.0,89,0.00,,,0.00,Wunderground v.1.15,2013-10-02 08:31:00,
2013-10-02 03:33:00,76.5,73.0,29.77,SSE,158,3.0,5.0,89,0.00,,,0.00,Wunderground v.1.15,2013-10-02 08:33:00,
2013-10-02 03:34:00,76.5,73.0,29.77,SSE,161,3.0,5.0,89,0.00,,,0.00,Wunderground v.1.15,2013-10-02 08:34:00,
2013-10-02 03:35:00,76.5,73.0,29.77,SSE,164,3.0,5.0,89,0.00,,,0.00,Wunderground v.1.15,2013-10-02 08:35:00,
2013-10-02 03:39:00,76.5,73.0,29.77,SE,141,4.0,5.0,89,0.00,,,0.00,Wunderground v.1.15,2013-10-02 08:39:00,
2013-10-02 03:42:00,76.5,73.0,29.77,SSE,152,4.0,5.0,89,0.00,,,0.00,Wunderground v.1.15,2013-10-02 08:42:00,
2013-10-02 03:43:00,76.5,73.0,29.77,SE,145,4.0,11.0,89,0.00,,,0.00,Wunderground v.1.15,2013-10-02 08:43:00,
2013-10-02 03:47:00,76.5,73.0,29.77,SSE,152,4.0,11.0,89,0.00,,,0.00,Wunderground v.1.15,2013-10-02 08:47:00,
2013-10-02 03:48:00,76.5,73.0,29.77,SSE,152,4.0,11.0,89,0.00,,,0.00,Wunderground v.1.15,2013-10-02 08:48:00,
2013-10-02 03:54:00,76.3,73.1,29.77,SE,133,4.0,7.0,90,0.00,,,0.00,Wunderground v.1.15,2013-10-02 08:54:00,
2013-10-02 03:56:00,76.3,73.1,29.77,SSE,160,4.0,7.0,90,0.00,,,0.00,Wunderground v.1.15,2013-10-02 08:56:00,
2013-10-02 03:59:00,76.3,73.1,29.77,SE,134,4.0,7.0,90,0.00,,,0.00,Wunderground v.1.15,2013-10-02 08:59:00,
2013-10-02 04:01:00,76.5,73.3,29.77,South,169,4.0,4.0,90,0.00,,,0.00,Wunderground v.1.15,2013-10-02 09:01:00,
2013-10-02 04:02:00,76.5,73.3,29.77,SSE,161,3.0,4.0,90,0.00,,,0.00,Wunderground v.1.15,2013-10-02 09:02:00,
2013-10-02 04:03:00,76.5,73.3,29.77,SSE,167,3.0,4.0,90,0.00,,,0.00,Wunderground v.1.15,2013-10-02 09:03:00,
2013-10-02 04:06:00,76.5,73.0,29.77,SSE,152,3.0,6.0,89,0.00,,,0.00,Wunderground v.1.15,2013-10-02 09:06:00,
2013-10-02 04:08:00,76.5,73.0,29.77,SSE,150,3.0,6.0,89,0.00,,,0.00,Wunderground v.1.15,2013-10-02 09:08:00,
2013-10-02 04:09:00,76.5,73.0,29.77,SE,127,3.0,6.0,89,0.00,,,0.00,Wunderground v.1.15,2013-10-02 09:09:00,
2013-10-02 04:11:00,76.3,73.1,29.77,ESE,117,3.0,3.0,90,0.00,,,0.00,Wunderground v.1.15,2013-10-02 09:11:00,
2013-10-02 04:14:00,76.3,73.1,29.77,SSE,162,3.0,5.0,90,0.00,,,0.00,Wunderground v.1.15,2013-10-02 09:14:00,
2013-10-02 04:17:00,76.3,73.1,29.77,SSE,148,3.0,5.0,90,0.00,,,0.00,Wunderground v.1.15,2013-10-02 09:17:00,
2013-10-02 04:19:00,76.3,73.1,29.77,SE,137,3.0,6.0,90,0.00,,,0.00,Wunderground v.1.15,2013-10-02 09:19:00,
2013-10-02 04:21:00,76.3,73.1,29.77,SE,128,3.0,6.0,90,0.00,,,0.00,Wunderground v.1.15,2013-10-02 09:21:00,
2013-10-02 04:23:00,76.3,73.1,29.77,SE,141,3.0,6.0,90,0.00,,,0.00,Wunderground v.1.15,2013-10-02 09:23:00,
2013-10-02 04:24:00,76.3,73.1,29.77,SE,130,3.0,7.0,90,0.00,,,0.00,Wunderground v.1.15,2013-10-02 09:24:00,
2013-10-02 04:25:00,76.3,73.1,29.77,SE,133,3.0,7.0,90,0.00,,,0.00,Wunderground v.1.15,2013-10-02 09:25:00,
2013-10-02 04:27:00,76.3,73.1,29.77,SE,133,3.0,7.0,90,0.00,,,0.00,Wunderground v.1.15,2013-10-02 09:27:00,
2013-10-02 04:28:00,76.3,73.1,29.77,SE,133,3.0,7.0,90,0.00,,,0.00,Wunderground v.1.15,2013-10-02 09:28:00,
2013-10-02 04:32:00,76.3,73.1,29.77,SE,137,3.0,3.0,90,0.00,,,0.00,Wunderground v.1.15,2013-10-02 09:32:00,
2013-10-02 04:33:00,76.3,73.1,29.77,SE,141,3.0,3.0,90,0.00,,,0.00,Wunderground v.1.15,2013-10-02 09:33:00,
2013-10-02 04:35:00,76.3,73.1,29.77,SE,141,3.0,3.0,90,0.00,,,0.00,Wunderground v.1.15,2013-10-02 09:35:00,
2013-10-02 04:38:00,76.5,73.3,29.77,SSE,151,3.0,4.0,90,0.00,,,0.00,Wunderground v.1.15,2013-10-02 09:38:00,
2013-10-02 04:41:00,76.3,73.1,29.77,SE,124,3.0,3.0,90,0.00,,,0.00,Wunderground v.1.15,2013-10-02 09:41:00,
2013-10-02 04:44:00,76.5,73.3,29.77,SE,128,3.0,5.0,90,0.00,,,0.00,Wunderground v.1.15,2013-10-02 09:44:00,
2013-10-02 04:45:00,76.3,73.1,29.77,SE,140,3.0,10.0,90,0.00,,,0.00,Wunderground v.1.15,2013-10-02 09:45:00,
2013-10-02 04:48:00,76.3,73.1,29.77,ESE,119,4.0,10.0,90,0.00,,,0.00,Wunderground v.1.15,2013-10-02 09:48:00,
2013-10-02 04:51:00,76.3,73.5,29.77,SE,128,4.0,4.0,91,0.00,,,0.00,Wunderground v.1.15,2013-10-02 09:51:00,
2013-10-02 04:52:00,76.3,73.5,29.77,SE,128,4.0,4.0,91,0.00,,,0.00,Wunderground v.1.15,2013-10-02 09:52:00,
2013-10-02 04:53:00,76.3,73.5,29.77,SSE,160,5.0,6.0,91,0.00,,,0.00,Wunderground v.1.15,2013-10-02 09:53:00,
2013-10-02 04:56:00,76.1,73.3,29.77,SE,136,4.0,6.0,91,0.00,,,0.00,Wunderground v.1.15,2013-10-02 09:56:00,
2013-10-02 04:57:00,76.1,73.3,29.77,SE,124,4.0,6.0,91,0.00,,,0.00,Wunderground v.1.15,2013-10-02 09:57:00,
2013-10-02 04:59:00,76.1,73.3,29.77,SE,128,4.0,6.0,91,0.00,,,0.00,Wunderground v.1.15,2013-10-02 09:59:00,
2013-10-02 05:01:00,76.0,73.2,29.77,SE,133,4.0,4.0,91,0.00,,,0.00,Wunderground v.1.15,2013-10-02 10:01:00,
2013-10-02 05:02:00,76.0,73.5,29.77,SE,133,4.0,4.0,92,0.00,,,0.00,Wunderground v.1.15,2013-10-02 10:02:00,
2013-10-02 05:03:00,76.0,73.5,29.77,SE,141,4.0,5.0,92,0.00,,,0.00,Wunderground v.1.15,2013-10-02 10:03:00,
2013-10-02 05:05:00,76.0,73.5,29.77,SSE,148,4.0,5.0,92,0.00,,,0.00,Wunderground v.1.15,2013-10-02 10:05:00,
2013-10-02 05:06:00,76.0,73.5,29.77,SSE,148,4.0,5.0,92,0.00,,,0.00,Wunderground v.1.15,2013-10-02 10:06:00,
2013-10-02 05:07:00,76.0,73.5,29.77,SE,141,4.0,5.0,92,0.00,,,0.00,Wunderground v.1.15,2013-10-02 10:07:00,
2013-10-02 05:09:00,76.0,73.5,29.77,SE,126,3.0,5.0,92,0.00,,,0.00,Wunderground v.1.15,2013-10-02 10:09:00,
2013-10-02 05:12:00,75.8,73.3,29.77,SE,143,3.0,3.0,92,0.00,,,0.01,Wunderground v.1.15,2013-10-02 10:12:00,
2013-10-02 05:13:00,75.8,73.3,29.77,SE,143,3.0,3.0,92,0.00,,,0.01,Wunderground v.1.15,2013-10-02 10:13:00,
2013-10-02 05:15:00,75.8,73.3,29.77,South,181,3.0,7.0,92,0.00,,,0.01,Wunderground v.1.15,2013-10-02 10:15:00,
2013-10-02 05:17:00,75.8,73.6,29.77,SSE,147,3.0,7.0,93,0.00,,,0.01,Wunderground v.1.15,2013-10-02 10:17:00,
2013-10-02 05:18:00,75.8,73.6,29.77,SSE,147,3.0,7.0,93,0.00,,,0.01,Wunderground v.1.15,2013-10-02 10:18:00,
2013-10-02 05:23:00,75.6,73.4,29.77,SSE,150,3.0,6.0,93,0.00,,,0.01,Wunderground v.1.15,2013-10-02 10:23:00,
2013-10-02 05:25:00,75.6,73.4,29.77,SSE,151,3.0,6.0,93,0.00,,,0.01,Wunderground v.1.15,2013-10-02 10:25:00,
2013-10-02 05:26:00,75.6,73.4,29.77,SSE,150,3.0,6.0,93,0.00,,,0.01,Wunderground v.1.15,2013-10-02 10:26:00,
2013-10-02 05:29:00,75.6,73.8,29.77,SSE,151,3.0,6.0,94,0.00,,,0.01,Wunderground v.1.15,2013-10-02 10:29:00,
2013-10-02 05:31:00,75.6,73.8,29.77,ESE,120,2.0,7.0,94,0.00,,,0.01,Wunderground v.1.15,2013-10-02 10:31:00,
2013-10-02 05:33:00,75.6,73.8,29.77,ESE,121,2.0,7.0,94,0.00,,,0.01,Wunderground v.1.15,2013-10-02 10:33:00,
2013-10-02 05:34:00,75.6,73.8,29.77,ESE,123,2.0,7.0,94,0.00,,,0.01,Wunderground v.1.15,2013-10-02 10:34:00,
2013-10-02 05:37:00,75.4,73.6,29.77,SE,143,2.0,7.0,94,0.00,,,0.01,Wunderground v.1.15,2013-10-02 10:37:00,
2013-10-02 05:38:00,75.4,73.6,29.77,SSE,147,3.0,7.0,94,0.00,,,0.01,Wunderground v.1.15,2013-10-02 10:38:00,
2013-10-02 05:44:00,75.4,73.6,29.77,SE,136,3.0,6.0,94,0.00,,,0.01,Wunderground v.1.15,2013-10-02 10:44:00,
2013-10-02 05:45:00,75.4,73.6,29.77,SE,143,3.0,6.0,94,0.00,,,0.01,Wunderground v.1.15,2013-10-02 10:45:00,
2013-10-02 05:46:00,75.4,73.6,29.77,SE,137,3.0,7.0,94,0.00,,,0.01,Wunderground v.1.15,2013-10-02 10:46:00,
2013-10-02 05:49:00,75.4,73.9,29.77,SE,143,3.0,7.0,95,0.00,,,0.01,Wunderground v.1.15,2013-10-02 10:49:00,
2013-10-02 05:51:00,75.4,73.9,29.77,SE,138,3.0,3.0,95,0.00,,,0.01,Wunderground v.1.15,2013-10-02 10:51:00,
2013-10-02 05:57:00,75.4,73.9,29.77,SE,134,3.0,4.0,95,0.00,,,0.01,Wunderground v.1.15,2013-10-02 10:57:00,
2013-10-02 05:59:00,75.3,73.8,29.77,SE,133,3.0,5.0,95,0.00,,,0.01,Wunderground v.1.15,2013-10-02 10:59:00,
2013-10-02 06:02:00,75.3,73.8,29.78,SE,128,3.0,4.0,95,0.00,,,0.01,Wunderground v.1.15,2013-10-02 11:02:00,
2013-10-02 06:03:00,75.3,73.8,29.78,SE,136,4.0,4.0,95,0.00,,,0.01,Wunderground v.1.15,2013-10-02 11:03:00,
2013-10-02 06:04:00,75.3,73.8,29.78,SE,136,4.0,4.0,95,0.00,,,0.01,Wunderground v.1.15,2013-10-02 11:04:00,
2013-10-02 06:06:00,75.4,73.9,29.78,SE,137,3.0,4.0,95,0.00,,,0.01,Wunderground v.1.15,2013-10-02 11:06:00,
2013-10-02 06:09:00,75.3,73.8,29.78,SE,138,3.0,5.0,95,0.00,,,0.01,Wunderground v.1.15,2013-10-02 11:09:00,
2013-10-02 06:11:00,75.3,73.8,29.78,SSE,155,3.0,6.0,95,0.00,,,0.01,Wunderground v.1.15,2013-10-02 11:11:00,
2013-10-02 06:12:00,75.3,73.8,29.78,SE,137,3.0,6.0,95,0.00,,,0.01,Wunderground v.1.15,2013-10-02 11:12:00,
2013-10-02 06:14:00,75.3,73.8,29.78,SE,134,3.0,6.0,95,0.00,,,0.01,Wunderground v.1.15,2013-10-02 11:14:00,
2013-10-02 06:17:00,75.3,73.8,29.78,SE,138,3.0,7.0,95,0.00,,,0.01,Wunderground v.1.15,2013-10-02 11:17:00,
2013-10-02 06:19:00,75.3,73.8,29.78,SSE,150,3.0,7.0,95,0.00,,,0.01,Wunderground v.1.15,2013-10-02 11:19:00,
2013-10-02 06:22:00,75.3,73.8,29.78,SSE,152,3.0,5.0,95,0.00,,,0.01,Wunderground v.1.15,2013-10-02 11:22:00,
2013-10-02 06:23:00,75.3,73.8,29.78,SSE,148,3.0,5.0,95,0.00,,,0.01,Wunderground v.1.15,2013-10-02 11:23:00,
2013-10-02 06:24:00,75.3,73.8,29.78,ESE,119,3.0,5.0,95,0.00,,,0.01,Wunderground v.1.15,2013-10-02 11:24:00,
2013-10-02 06:26:00,75.3,73.8,29.78,SE,137,3.0,5.0,95,0.00,,,0.01,Wunderground v.1.15,2013-10-02 11:26:00,
2013-10-02 06:28:00,75.3,73.8,29.78,SE,138,3.0,6.0,95,0.00,,,0.01,Wunderground v.1.15,2013-10-02 11:28:00,
2013-10-02 06:31:00,75.3,74.1,29.78,SE,145,3.0,3.0,96,0.00,,,0.01,Wunderground v.1.15,2013-10-02 11:31:00,
2013-10-02 06:34:00,75.3,74.1,29.78,SE,145,2.0,3.0,96,0.00,,,0.01,Wunderground v.1.15,2013-10-02 11:34:00,
2013-10-02 06:35:00,75.3,74.1,29.78,SE,145,2.0,3.0,96,0.00,,,0.01,Wunderground v.1.15,2013-10-02 11:35:00,
2013-10-02 06:37:00,75.3,73.8,29.78,SE,138,2.0,5.0,95,0.00,,,0.01,Wunderground v.1.15,2013-10-02 11:37:00,
2013-10-02 06:41:00,75.1,73.9,29.78,SSW,192,2.0,5.0,96,0.00,,,0.01,Wunderground v.1.15,2013-10-02 11:41:00,
2013-10-02 06:42:00,75.1,73.9,29.78,South,189,3.0,5.0,96,0.00,,,0.01,Wunderground v.1.15,2013-10-02 11:42:00,
2013-10-02 06:43:00,75.1,73.9,29.78,ESE,110,3.0,5.0,96,0.00,,,0.01,Wunderground v.1.15,2013-10-02 11:43:00,
2013-10-02 06:45:00,75.1,73.9,29.78,ESE,114,3.0,5.0,96,0.00,,,0.01,Wunderground v.1.15,2013-10-02 11:45:00,
2013-10-02 06:47:00,75.1,73.9,29.79,SSE,154,3.0,6.0,96,0.00,,,0.01,Wunderground v.1.15,2013-10-02 11:47:00,
2013-10-02 06:48:00,75.1,73.9,29.79,SSE,160,3.0,6.0,96,0.00,,,0.01,Wunderground v.1.15,2013-10-02 11:48:00,
2013-10-02 06:49:00,75.1,73.9,29.79,ESE,110,3.0,7.0,96,0.00,,,0.01,Wunderground v.1.15,2013-10-02 11:49:00,
2013-10-02 06:53:00,75.1,73.9,29.79,SSE,161,4.0,7.0,96,0.00,,,0.01,Wunderground v.1.15,2013-10-02 11:53:00,
2013-10-02 06:54:00,75.1,73.9,29.79,SSE,161,3.0,7.0,96,0.00,,,0.01,Wunderground v.1.15,2013-10-02 11:54:00,
2013-10-02 06:55:00,75.1,73.9,29.79,SSE,160,3.0,7.0,96,0.00,,,0.01,Wunderground v.1.15,2013-10-02 11:55:00,
2013-10-02 06:56:00,75.1,73.9,29.79,SSE,161,4.0,7.0,96,0.00,,,0.01,Wunderground v.1.15,2013-10-02 11:56:00,
2013-10-02 07:02:00,75.1,73.9,29.79,SE,143,3.0,5.0,96,0.00,,,0.01,Wunderground v.1.15,2013-10-02 12:02:00,
2013-10-02 07:04:00,75.1,73.6,29.79,South,181,3.0,5.0,95,0.00,,,0.01,Wunderground v.1.15,2013-10-02 12:04:00,
2013-10-02 07:05:00,75.1,73.6,29.79,SSW,199,3.0,7.0,95,0.00,,,0.01,Wunderground v.1.15,2013-10-02 12:05:00,
2013-10-02 07:07:00,75.1,73.6,29.79,South,188,3.0,7.0,95,0.00,,,0.01,Wunderground v.1.15,2013-10-02 12:07:00,
2013-10-02 07:08:00,75.1,73.6,29.79,South,188,3.0,7.0,95,0.00,,,0.01,Wunderground v.1.15,2013-10-02 12:08:00,
2013-10-02 07:12:00,75.1,73.6,29.79,South,169,2.0,2.0,95,0.00,,,0.01,Wunderground v.1.15,2013-10-02 12:12:00,
2013-10-02 07:13:00,75.1,73.6,29.79,South,171,2.0,2.0,95,0.00,,,0.01,Wunderground v.1.15,2013-10-02 12:13:00,
2013-10-02 07:14:00,75.1,73.6,29.79,South,171,1.0,2.0,95,0.00,,,0.01,Wunderground v.1.15,2013-10-02 12:14:00,
2013-10-02 07:17:00,75.1,73.6,29.80,SSW,213,1.0,6.0,95,0.00,,,0.01,Wunderground v.1.15,2013-10-02 12:17:00,
2013-10-02 07:19:00,75.1,73.6,29.80,South,172,2.0,8.0,95,0.00,,,0.01,Wunderground v.1.15,2013-10-02 12:19:00,
2013-10-02 07:22:00,75.1,73.6,29.80,SSE,162,3.0,5.0,95,0.00,,,0.01,Wunderground v.1.15,2013-10-02 12:22:00,
2013-10-02 07:23:00,75.1,73.6,29.80,SSE,161,3.0,6.0,95,0.00,,,0.01,Wunderground v.1.15,2013-10-02 12:23:00,
2013-10-02 07:25:00,75.1,73.6,29.80,SE,144,4.0,6.0,95,0.00,,,0.01,Wunderground v.1.15,2013-10-02 12:25:00,
2013-10-02 07:26:00,75.1,73.6,29.80,South,176,4.0,6.0,95,0.00,,,0.01,Wunderground v.1.15,2013-10-02 12:26:00,
2013-10-02 07:27:00,75.1,73.6,29.80,South,178,4.0,6.0,95,0.00,,,0.01,Wunderground v.1.15,2013-10-02 12:27:00,
2013-10-02 07:28:00,75.1,73.6,29.80,South,172,4.0,6.0,95,0.00,,,0.01,Wunderground v.1.15,2013-10-02 12:28:00,
2013-10-02 07:29:00,75.1,73.6,29.80,SSE,167,3.0,6.0,95,0.00,,,0.01,Wunderground v.1.15,2013-10-02 12:29:00,
2013-10-02 07:32:00,75.1,73.6,29.80,South,182,3.0,3.0,95,0.00,,,0.01,Wunderground v.1.15,2013-10-02 12:32:00,
2013-10-02 07:33:00,75.1,73.6,29.80,SSW,196,3.0,7.0,95,0.00,,,0.01,Wunderground v.1.15,2013-10-02 12:33:00,
2013-10-02 07:34:00,75.1,73.6,29.80,South,188,3.0,7.0,95,0.00,,,0.01,Wunderground v.1.15,2013-10-02 12:34:00,
2013-10-02 07:36:00,75.1,73.6,29.80,South,185,3.0,7.0,95,0.00,,,0.01,Wunderground v.1.15,2013-10-02 12:36:00,
2013-10-02 07:38:00,75.1,73.6,29.80,South,176,4.0,7.0,95,0.00,,,0.01,Wunderground v.1.15,2013-10-02 12:38:00,
2013-10-02 07:39:00,75.1,73.6,29.80,South,176,4.0,7.0,95,0.00,,,0.01,Wunderground v.1.15,2013-10-02 12:39:00,
2013-10-02 07:42:00,74.9,73.4,29.80,South,178,3.0,3.0,95,0.00,,,0.01,Wunderground v.1.15,2013-10-02 12:42:00,
2013-10-02 07:44:00,74.9,73.1,29.80,South,188,3.0,7.0,94,0.00,,,0.01,Wunderground v.1.15,2013-10-02 12:44:00,
2013-10-02 07:46:00,74.9,73.1,29.80,South,188,3.0,7.0,94,0.00,,,0.01,Wunderground v.1.15,2013-10-02 12:46:00,
2013-10-02 07:47:00,74.9,73.1,29.80,South,186,3.0,7.0,94,0.00,,,0.01,Wunderground v.1.15,2013-10-02 12:47:00,
2013-10-02 07:52:00,74.9,73.1,29.80,South,191,2.0,2.0,94,0.00,,,0.01,Wunderground v.1.15,2013-10-02 12:52:00,
2013-10-02 07:53:00,74.9,73.1,29.80,SSW,192,2.0,4.0,94,0.00,,,0.01,Wunderground v.1.15,2013-10-02 12:53:00,
2013-10-02 07:55:00,74.9,73.1,29.80,South,186,2.0,4.0,94,0.00,,,0.01,Wunderground v.1.15,2013-10-02 12:55:00,
2013-10-02 07:57:00,74.9,73.1,29.80,South,185,2.0,4.0,94,0.00,,,0.01,Wunderground v.1.15,2013-10-02 12:57:00,
2013-10-02 07:58:00,74.9,73.1,29.80,South,186,2.0,4.0,94,0.00,,,0.01,Wunderground v.1.15,2013-10-02 12:58:00,
2013-10-02 08:01:00,74.9,73.1,29.80,South,188,2.0,2.0,94,0.00,,,0.01,Wunderground v.1.15,2013-10-02 13:01:00,
2013-10-02 08:03:00,74.9,73.1,29.81,SSW,195,2.0,2.0,94,0.00,,,0.01,Wunderground v.1.15,2013-10-02 13:03:00,
2013-10-02 08:05:00,74.9,73.1,29.81,South,189,2.0,6.0,94,0.00,,,0.01,Wunderground v.1.15,2013-10-02 13:05:00,
2013-10-02 08:07:00,74.9,73.1,29.81,South,191,2.0,6.0,94,0.00,,,0.01,Wunderground v.1.15,2013-10-02 13:07:00,
2013-10-02 08:09:00,74.9,73.1,29.81,SSW,205,3.0,6.0,94,0.00,,,0.01,Wunderground v.1.15,2013-10-02 13:09:00,
2013-10-02 08:12:00,74.9,73.1,29.81,SSW,206,3.0,7.0,94,0.00,,,0.01,Wunderground v.1.15,2013-10-02 13:12:00,
2013-10-02 08:13:00,74.9,73.1,29.81,South,174,4.0,8.0,94,0.00,,,0.01,Wunderground v.1.15,2013-10-02 13:13:00,
2013-10-02 08:14:00,74.9,73.1,29.81,South,184,4.0,8.0,94,0.00,,,0.01,Wunderground v.1.15,2013-10-02 13:14:00,
2013-10-02 08:15:00,74.9,73.1,29.81,South,185,4.0,8.0,94,0.00,,,0.01,Wunderground v.1.15,2013-10-02 13:15:00,
2013-10-02 08:18:00,74.9,73.1,29.81,South,181,5.0,8.0,94,0.00,,,0.01,Wunderground v.1.15,2013-10-02 13:18:00,
2013-10-02 08:19:00,74.9,73.1,29.81,South,171,4.0,8.0,94,0.00,,,0.01,Wunderground v.1.15,2013-10-02 13:19:00,
2013-10-02 08:22:00,74.9,73.1,29.81,South,188,4.0,5.0,94,0.00,,,0.01,Wunderground v.1.15,2013-10-02 13:22:00,
2013-10-02 08:25:00,74.9,73.1,29.81,South,171,3.0,6.0,94,0.00,,,0.01,Wunderground v.1.15,2013-10-02 13:25:00,
2013-10-02 08:26:00,75.1,73.3,29.81,South,171,3.0,6.0,94,0.00,,,0.01,Wunderground v.1.15,2013-10-02 13:26:00,
2013-10-02 08:27:00,75.1,73.3,29.81,South,191,3.0,6.0,94,0.00,,,0.01,Wunderground v.1.15,2013-10-02 13:27:00,
2013-10-02 08:29:00,75.1,73.3,29.81,SSW,202,3.0,6.0,94,0.00,,,0.01,Wunderground v.1.15,2013-10-02 13:29:00,
2013-10-02 08:32:00,74.9,72.7,29.82,SSE,168,4.0,4.0,93,0.00,,,0.01,Wunderground v.1.15,2013-10-02 13:32:00,
2013-10-02 08:33:00,74.9,72.7,29.82,South,179,3.0,4.0,93,0.00,,,0.01,Wunderground v.1.15,2013-10-02 13:33:00,
2013-10-02 08:35:00,74.9,72.7,29.82,South,186,3.0,8.0,93,0.00,,,0.01,Wunderground v.1.15,2013-10-02 13:35:00,
2013-10-02 08:37:00,74.9,72.7,29.82,South,186,4.0,8.0,93,0.00,,,0.01,Wunderground v.1.15,2013-10-02 13:37:00,
2013-10-02 08:39:00,75.1,72.9,29.82,South,191,5.0,9.0,93,0.00,,,0.01,Wunderground v.1.15,2013-10-02 13:39:00,
2013-10-02 08:42:00,75.1,72.9,29.82,South,179,4.0,4.0,93,0.00,,,0.01,Wunderground v.1.15,2013-10-02 13:42:00,
2013-10-02 08:43:00,75.1,72.9,29.82,South,171,4.0,6.0,93,0.00,,,0.01,Wunderground v.1.15,2013-10-02 13:43:00,
2013-10-02 08:45:00,75.1,72.9,29.82,ESE,112,4.0,6.0,93,0.00,,,0.01,Wunderground v.1.15,2013-10-02 13:45:00,
2013-10-02 08:47:00,74.9,72.7,29.82,South,189,4.0,7.0,93,0.00,,,0.01,Wunderground v.1.15,2013-10-02 13:47:00,
2013-10-02 08:48:00,74.9,72.7,29.82,SSW,209,4.0,7.0,93,0.00,,,0.01,Wunderground v.1.15,2013-10-02 13:48:00,
2013-10-02 08:52:00,74.9,72.7,29.82,SSW,206,3.0,3.0,93,0.00,,,0.01,Wunderground v.1.15,2013-10-02 13:52:00,
2013-10-02 08:53:00,74.9,72.4,29.82,South,171,3.0,4.0,92,0.00,,,0.01,Wunderground v.1.15,2013-10-02 13:53:00,
2013-10-02 08:55:00,74.9,72.7,29.82,South,186,4.0,6.0,93,0.00,,,0.01,Wunderground v.1.15,2013-10-02 13:55:00,
2013-10-02 08:57:00,74.9,72.7,29.82,South,189,3.0,6.0,93,0.00,,,0.01,Wunderground v.1.15,2013-10-02 13:57:00,
2013-10-02 08:58:00,74.9,72.4,29.82,SSW,198,3.0,6.0,92,0.00,,,0.01,Wunderground v.1.15,2013-10-02 13:58:00,
2013-10-02 09:02:00,75.1,72.6,29.83,SSE,165,4.0,7.0,92,0.00,,,0.01,Wunderground v.1.15,2013-10-02 14:02:00,
2013-10-02 09:03:00,75.1,72.6,29.83,South,174,4.0,7.0,92,0.00,,,0.01,Wunderground v.1.15,2013-10-02 14:03:00,
2013-10-02 09:05:00,75.3,73.1,29.83,South,178,4.0,7.0,93,0.00,,,0.01,Wunderground v.1.15,2013-10-02 14:05:00,
2013-10-02 09:07:00,75.4,72.9,29.83,SE,134,3.0,7.0,92,0.00,,,0.01,Wunderground v.1.15,2013-10-02 14:07:00,
2013-10-02 09:09:00,75.6,73.1,29.83,SE,134,3.0,7.0,92,0.00,,,0.01,Wunderground v.1.15,2013-10-02 14:09:00,
2013-10-02 09:12:00,75.8,73.3,29.83,South,184,3.0,8.0,92,0.00,,,0.01,Wunderground v.1.15,2013-10-02 14:12:00,
2013-10-02 09:14:00,76.0,73.5,29.83,South,176,3.0,8.0,92,0.00,,,0.01,Wunderground v.1.15,2013-10-02 14:14:00,
2013-10-02 09:15:00,76.1,73.6,29.83,SSW,208,3.0,8.0,92,0.00,,,0.01,Wunderground v.1.15,2013-10-02 14:15:00,
2013-10-02 09:18:00,76.1,73.0,29.83,South,189,3.0,8.0,90,0.00,,,0.01,Wunderground v.1.15,2013-10-02 14:18:00,
2013-10-02 09:23:00,76.5,73.0,29.83,South,186,4.0,4.0,89,0.00,,,0.01,Wunderground v.1.15,2013-10-02 14:23:00,
2013-10-02 09:24:00,76.7,72.9,29.83,SSW,192,4.0,12.0,88,0.00,,,0.01,Wunderground v.1.15,2013-10-02 14:24:00,
2013-10-02 09:25:00,76.7,72.5,29.83,South,184,4.0,12.0,87,0.00,,,0.01,Wunderground v.1.15,2013-10-02 14:25:00,
2013-10-02 09:26:00,76.7,72.5,29.83,WSW,251,5.0,12.0,87,0.00,,,0.01,Wunderground v.1.15,2013-10-02 14:26:00,
2013-10-02 09:29:00,76.7,72.2,29.83,SSW,193,6.0,13.0,86,0.00,,,0.01,Wunderground v.1.15,2013-10-02 14:29:00,
2013-10-02 09:32:00,76.7,72.2,29.83,SSW,195,6.0,6.0,86,0.00,,,0.01,Wunderground v.1.15,2013-10-02 14:32:00,
2013-10-02 09:33:00,76.8,72.3,29.83,SSE,165,6.0,6.0,86,0.00,,,0.01,Wunderground v.1.15,2013-10-02 14:33:00,
2013-10-02 09:35:00,76.7,71.8,29.83,SE,138,6.0,9.0,85,0.00,,,0.01,Wunderground v.1.15,2013-10-02 14:35:00,
2013-10-02 09:37:00,76.7,71.8,29.83,South,186,6.0,9.0,85,0.00,,,0.01,Wunderground v.1.15,2013-10-02 14:37:00,
2013-10-02 09:42:00,76.7,71.5,29.83,SSE,165,5.0,5.0,84,0.00,,,0.01,Wunderground v.1.15,2013-10-02 14:42:00,
2013-10-02 09:43:00,76.8,71.6,29.83,South,189,5.0,7.0,84,0.00,,,0.01,Wunderground v.1.15,2013-10-02 14:43:00,
2013-10-02 09:45:00,76.8,71.6,29.83,South,171,4.0,7.0,84,0.00,,,0.01,Wunderground v.1.15,2013-10-02 14:45:00,
2013-10-02 09:47:00,76.8,71.6,29.84,South,178,4.0,7.0,84,0.00,,,0.01,Wunderground v.1.15,2013-10-02 14:47:00,
2013-10-02 09:49:00,76.8,71.6,29.84,SE,138,3.0,7.0,84,0.00,,,0.01,Wunderground v.1.15,2013-10-02 14:49:00,
2013-10-02 09:52:00,77.0,71.4,29.84,SSE,161,4.0,6.0,83,0.00,,,0.01,Wunderground v.1.15,2013-10-02 14:52:00,
2013-10-02 09:53:00,77.2,71.3,29.84,SSW,196,4.0,6.0,82,0.00,,,0.01,Wunderground v.1.15,2013-10-02 14:53:00,
2013-10-02 09:57:00,77.0,71.1,29.84,South,185,4.0,7.0,82,0.00,,,0.01,Wunderground v.1.15,2013-10-02 14:57:00,
2013-10-02 10:02:00,77.4,71.5,29.84,South,184,3.0,6.0,82,0.00,,,0.01,Wunderground v.1.15,2013-10-02 15:02:00,
2013-10-02 10:04:00,77.4,71.1,29.84,SSW,193,3.0,6.0,81,0.00,,,0.01,Wunderground v.1.15,2013-10-02 15:04:00,
2013-10-02 10:06:00,77.4,71.1,29.84,South,185,4.0,6.0,81,0.00,,,0.01,Wunderground v.1.15,2013-10-02 15:06:00,
2013-10-02 10:07:00,77.6,71.3,29.84,South,179,4.0,6.0,81,0.00,,,0.01,Wunderground v.1.15,2013-10-02 15:07:00,
2013-10-02 10:12:00,78.1,71.4,29.84,SW,234,4.0,4.0,80,0.00,,,0.01,Wunderground v.1.15,2013-10-02 15:12:00,
2013-10-02 10:13:00,78.3,71.2,29.84,SSE,160,4.0,5.0,79,0.00,,,0.01,Wunderground v.1.15,2013-10-02 15:13:00,
2013-10-02 10:14:00,78.3,71.2,29.84,South,172,4.0,6.0,79,0.00,,,0.01,Wunderground v.1.15,2013-10-02 15:14:00,
2013-10-02 10:17:00,78.3,70.9,29.84,South,181,4.0,6.0,78,0.00,,,0.01,Wunderground v.1.15,2013-10-02 15:17:00,
2013-10-02 10:19:00,78.5,71.4,29.84,South,186,3.0,6.0,79,0.00,,,0.01,Wunderground v.1.15,2013-10-02 15:19:00,
2013-10-02 10:23:00,79.4,71.9,29.84,SSE,162,3.0,7.0,78,0.00,,,0.01,Wunderground v.1.15,2013-10-02 15:23:00,
2013-10-02 10:24:00,79.4,71.6,29.84,SE,143,3.0,7.0,77,0.00,,,0.01,Wunderground v.1.15,2013-10-02 15:24:00,
2013-10-02 10:27:00,79.4,71.2,29.84,SW,219,3.0,10.0,76,0.00,,,0.01,Wunderground v.1.15,2013-10-02 15:27:00,
2013-10-02 10:28:00,79.4,71.2,29.84,SSW,200,3.0,10.0,76,0.00,,,0.01,Wunderground v.1.15,2013-10-02 15:28:00,
2013-10-02 10:29:00,79.4,71.2,29.84,SW,219,4.0,10.0,76,0.00,,,0.01,Wunderground v.1.15,2013-10-02 15:29:00,
2013-10-02 10:33:00,79.6,71.4,29.84,SSW,202,4.0,7.0,76,0.00,,,0.01,Wunderground v.1.15,2013-10-02 15:33:00,
2013-10-02 10:34:00,79.8,71.6,29.84,SW,219,5.0,7.0,76,0.00,,,0.01,Wunderground v.1.15,2013-10-02 15:34:00,
2013-10-02 10:36:00,79.8,71.9,29.84,SW,216,5.0,7.0,77,0.00,,,0.01,Wunderground v.1.15,2013-10-02 15:36:00,
2013-10-02 10:38:00,80.3,72.4,29.84,SSW,199,4.0,7.0,77,0.00,,,0.01,Wunderground v.1.15,2013-10-02 15:38:00,
2013-10-02 10:42:00,80.7,72.0,29.84,SSW,200,4.0,4.0,75,0.00,,,0.01,Wunderground v.1.15,2013-10-02 15:42:00,
2013-10-02 10:43:00,80.7,71.6,29.84,SW,222,3.0,6.0,74,0.00,,,0.01,Wunderground v.1.15,2013-10-02 15:43:00,
2013-10-02 10:44:00,80.7,71.6,29.84,South,176,3.0,6.0,74,0.00,,,0.01,Wunderground v.1.15,2013-10-02 15:44:00,
2013-10-02 10:46:00,80.7,72.0,29.84,South,186,2.0,7.0,75,0.00,,,0.01,Wunderground v.1.15,2013-10-02 15:46:00,
2013-10-02 10:49:00,80.5,71.8,29.84,SSW,202,3.0,7.0,75,0.00,,,0.01,Wunderground v.1.15,2013-10-02 15:49:00,
2013-10-02 10:52:00,80.7,72.0,29.84,South,179,3.0,3.0,75,0.00,,,0.01,Wunderground v.1.15,2013-10-02 15:52:00,
2013-10-02 10:55:00,80.9,71.4,29.84,South,179,3.0,5.0,73,0.00,,,0.01,Wunderground v.1.15,2013-10-02 15:55:00,
2013-10-02 10:57:00,80.7,71.6,29.84,SSW,195,4.0,9.0,74,0.00,,,0.01,Wunderground v.1.15,2013-10-02 15:57:00,
2013-10-02 10:59:00,80.7,71.2,29.84,South,169,4.0,9.0,73,0.00,,,0.01,Wunderground v.1.15,2013-10-02 15:59:00,
2013-10-02 11:05:00,80.3,70.9,29.84,South,171,4.0,12.0,73,0.00,,,0.01,Wunderground v.1.15,2013-10-02 16:05:00,
2013-10-02 11:07:00,80.3,70.4,29.84,SSW,192,5.0,12.0,72,0.00,,,0.01,Wunderground v.1.15,2013-10-02 16:07:00,
2013-10-02 11:09:00,80.5,70.6,29.84,SSE,148,5.0,12.0,72,0.00,,,0.01,Wunderground v.1.15,2013-10-02 16:09:00,
2013-10-02 11:12:00,80.7,70.8,29.84,South,179,4.0,4.0,72,0.00,,,0.01,Wunderground v.1.15,2013-10-02 16:12:00,
2013-10-02 11:14:00,81.1,71.2,29.84,SSE,150,4.0,4.0,72,0.00,,,0.01,Wunderground v.1.15,2013-10-02 16:14:00,
2013-10-02 11:16:00,81.2,70.9,29.84,South,185,3.0,6.0,71,0.00,,,0.01,Wunderground v.1.15,2013-10-02 16:16:00,
2013-10-02 11:17:00,81.2,70.9,29.84,SSW,193,3.0,6.0,71,0.00,,,0.01,Wunderground v.1.15,2013-10-02 16:17:00,
2013-10-02 11:18:00,81.4,71.1,29.84,SSE,167,3.0,6.0,71,0.00,,,0.01,Wunderground v.1.15,2013-10-02 16:18:00,
2013-10-02 11:19:00,81.6,71.7,29.84,South,181,3.0,6.0,72,0.00,,,0.01,Wunderground v.1.15,2013-10-02 16:19:00,
2013-10-02 11:22:00,81.6,70.9,29.84,SSW,198,4.0,4.0,70,0.00,,,0.01,Wunderground v.1.15,2013-10-02 16:22:00,
2013-10-02 11:23:00,81.6,70.9,29.84,SSE,165,4.0,9.0,70,0.00,,,0.01,Wunderground v.1.15,2013-10-02 16:23:00,
2013-10-02 11:24:00,81.4,70.2,29.84,South,185,4.0,9.0,69,0.00,,,0.01,Wunderground v.1.15,2013-10-02 16:24:00,
2013-10-02 11:26:00,81.4,70.7,29.84,SSE,155,5.0,9.0,70,0.00,,,0.01,Wunderground v.1.15,2013-10-02 16:26:00,
2013-10-02 11:29:00,81.8,70.6,29.84,South,172,6.0,9.0,69,0.00,,,0.01,Wunderground v.1.15,2013-10-02 16:29:00,
2013-10-02 11:32:00,82.0,70.8,29.83,South,181,5.0,6.0,69,0.00,,,0.01,Wunderground v.1.15,2013-10-02 16:32:00,
2013-10-02 11:33:00,82.2,71.0,29.83,South,188,5.0,6.0,69,0.00,,,0.01,Wunderground v.1.15,2013-10-02 16:33:00,
2013-10-02 11:38:00,82.4,70.8,29.83,South,176,4.0,11.0,68,0.00,,,0.01,Wunderground v.1.15,2013-10-02 16:38:00,
2013-10-02 11:39:00,82.4,70.3,29.83,SE,138,5.0,11.0,67,0.00,,,0.01,Wunderground v.1.15,2013-10-02 16:39:00,
2013-10-02 11:42:00,82.6,70.5,29.83,SSE,147,4.0,4.0,67,0.00,,,0.01,Wunderground v.1.15,2013-10-02 16:42:00,
2013-10-02 11:45:00,83.2,70.7,29.83,South,179,4.0,6.0,66,0.00,,,0.01,Wunderground v.1.15,2013-10-02 16:45:00,
2013-10-02 11:46:00,83.4,70.4,29.83,South,185,4.0,6.0,65,0.00,,,0.01,Wunderground v.1.15,2013-10-02 16:46:00,
2013-10-02 11:48:00,83.4,70.8,29.83,SSW,192,4.0,9.0,66,0.00,,,0.01,Wunderground v.1.15,2013-10-02 16:48:00,
2013-10-02 11:49:00,83.4,70.4,29.83,SSE,150,5.0,9.0,65,0.00,,,0.01,Wunderground v.1.15,2013-10-02 16:49:00,
2013-10-02 11:52:00,83.8,70.3,29.83,SSE,160,5.0,5.0,64,0.00,,,0.01,Wunderground v.1.15,2013-10-02 16:52:00,
2013-10-02 11:53:00,83.6,70.6,29.83,SSE,155,5.0,5.0,65,0.00,,,0.01,Wunderground v.1.15,2013-10-02 16:53:00,
2013-10-02 11:55:00,83.6,70.6,29.83,SW,219,5.0,5.0,65,0.00,,,0.01,Wunderground v.1.15,2013-10-02 16:55:00,
2013-10-02 11:56:00,83.8,71.2,29.83,SSW,208,4.0,5.0,66,0.00,,,0.01,Wunderground v.1.15,2013-10-02 16:56:00,
2013-10-02 11:58:00,84.1,71.1,29.83,South,191,4.0,13.0,65,0.00,,,0.01,Wunderground v.1.15,2013-10-02 16:58:00,
2013-10-02 11:59:00,83.8,70.8,29.83,South,186,4.0,13.0,65,0.00,,,0.01,Wunderground v.1.15,2013-10-02 16:59:00,
2013-10-02 12:04:00,84.0,70.0,29.83,SE,131,4.0,7.0,63,0.00,,,0.01,Wunderground v.1.15,2013-10-02 17:04:00,
2013-10-02 12:05:00,84.0,70.5,29.83,SSE,168,5.0,7.0,64,0.00,,,0.01,Wunderground v.1.15,2013-10-02 17:05:00,
2013-10-02 12:06:00,84.1,71.1,29.83,SSE,150,5.0,7.0,65,0.00,,,0.01,Wunderground v.1.15,2013-10-02 17:06:00,
2013-10-02 12:08:00,84.0,70.5,29.83,SE,136,5.0,7.0,64,0.00,,,0.01,Wunderground v.1.15,2013-10-02 17:08:00,
2013-10-02 12:12:00,84.1,71.1,29.83,SSE,165,5.0,6.0,65,0.00,,,0.01,Wunderground v.1.15,2013-10-02 17:12:00,
2013-10-02 12:13:00,84.0,71.0,29.83,SSE,167,5.0,6.0,65,0.00,,,0.01,Wunderground v.1.15,2013-10-02 17:13:00,
2013-10-02 12:14:00,83.8,70.3,29.83,East,100,5.0,6.0,64,0.00,,,0.01,Wunderground v.1.15,2013-10-02 17:14:00,
2013-10-02 12:15:00,83.6,70.1,29.83,ESE,102,5.0,6.0,64,0.00,,,0.01,Wunderground v.1.15,2013-10-02 17:15:00,
2013-10-02 12:16:00,83.6,70.6,29.83,SSE,165,5.0,6.0,65,0.00,,,0.01,Wunderground v.1.15,2013-10-02 17:16:00,
2013-10-02 12:18:00,83.6,71.0,29.83,South,172,4.0,6.0,66,0.00,,,0.01,Wunderground v.1.15,2013-10-02 17:18:00,
2013-10-02 12:22:00,83.8,71.2,29.83,SSW,203,3.0,3.0,66,0.00,,,0.01,Wunderground v.1.15,2013-10-02 17:22:00,
2013-10-02 12:24:00,83.8,71.2,29.83,SSE,152,3.0,6.0,66,0.00,,,0.01,Wunderground v.1.15,2013-10-02 17:24:00,
2013-10-02 12:25:00,83.6,70.6,29.83,SE,136,3.0,6.0,65,0.00,,,0.01,Wunderground v.1.15,2013-10-02 17:25:00,
2013-10-02 12:27:00,83.6,71.0,29.83,South,172,3.0,6.0,66,0.00,,,0.01,Wunderground v.1.15,2013-10-02 17:27:00,
2013-10-02 12:28:00,83.6,70.6,29.83,ESE,112,3.0,6.0,65,0.00,,,0.01,Wunderground v.1.15,2013-10-02 17:28:00,
2013-10-02 12:29:00,83.8,71.2,29.83,SE,128,3.0,6.0,66,0.00,,,0.01,Wunderground v.1.15,2013-10-02 17:29:00,
2013-10-02 12:33:00,83.8,70.3,29.82,ESE,106,3.0,10.0,64,0.00,,,0.01,Wunderground v.1.15,2013-10-02 17:33:00,
2013-10-02 12:35:00,84.0,71.0,29.82,ESE,117,3.0,10.0,65,0.00,,,0.01,Wunderground v.1.15,2013-10-02 17:35:00,
2013-10-02 12:38:00,83.8,70.8,29.82,SE,138,5.0,12.0,65,0.00,,,0.01,Wunderground v.1.15,2013-10-02 17:38:00,
2013-10-02 12:42:00,83.6,70.1,29.82,South,186,6.0,6.0,64,0.00,,,0.01,Wunderground v.1.15,2013-10-02 17:42:00,
2013-10-02 12:43:00,83.8,70.8,29.82,South,186,6.0,6.0,65,0.00,,,0.01,Wunderground v.1.15,2013-10-02 17:43:00,
2013-10-02 12:45:00,83.8,70.3,29.82,South,181,6.0,6.0,64,0.00,,,0.01,Wunderground v.1.15,2013-10-02 17:45:00,
2013-10-02 12:48:00,84.3,70.8,29.81,SE,126,4.0,8.0,64,0.00,,,0.01,Wunderground v.1.15,2013-10-02 17:48:00,
2013-10-02 12:52:00,84.3,70.8,29.81,SE,137,3.0,3.0,64,0.00,,,0.01,Wunderground v.1.15,2013-10-02 17:52:00,
2013-10-02 12:54:00,84.7,71.2,29.81,SSE,168,3.0,3.0,64,0.00,,,0.01,Wunderground v.1.15,2013-10-02 17:54:00,
2013-10-02 12:57:00,84.9,70.4,29.81,South,189,4.0,7.0,62,0.00,,,0.01,Wunderground v.1.15,2013-10-02 17:57:00,
2013-10-02 12:58:00,84.9,70.4,29.81,WSW,256,4.0,7.0,62,0.00,,,0.01,Wunderground v.1.15,2013-10-02 17:58:00,
2013-10-02 13:02:00,84.9,71.4,29.81,SE,144,4.0,5.0,64,0.00,,,0.01,Wunderground v.1.15,2013-10-02 18:02:00,
2013-10-02 13:03:00,84.7,70.2,29.81,South,191,5.0,8.0,62,0.00,,,0.01,Wunderground v.1.15,2013-10-02 18:03:00,
2013-10-02 13:06:00,84.7,70.2,29.81,SSE,147,5.0,8.0,62,0.00,,,0.01,Wunderground v.1.15,2013-10-02 18:06:00,
2013-10-02 13:08:00,84.7,70.7,29.81,SW,227,5.0,8.0,63,0.00,,,0.01,Wunderground v.1.15,2013-10-02 18:08:00,
2013-10-02 13:12:00,84.7,70.7,29.81,SSW,202,4.0,5.0,63,0.00,,,0.01,Wunderground v.1.15,2013-10-02 18:12:00,
2013-10-02 13:13:00,84.7,70.7,29.81,SSE,147,4.0,6.0,63,0.00,,,0.01,Wunderground v.1.15,2013-10-02 18:13:00,
2013-10-02 13:14:00,84.9,71.4,29.81,SSE,148,3.0,6.0,64,0.00,,,0.01,Wunderground v.1.15,2013-10-02 18:14:00,
2013-10-02 13:16:00,85.1,71.1,29.81,SSE,167,2.0,6.0,63,0.00,,,0.01,Wunderground v.1.15,2013-10-02 18:16:00,
2013-10-02 13:18:00,85.1,70.6,29.80,South,189,2.0,6.0,62,0.00,,,0.01,Wunderground v.1.15,2013-10-02 18:18:00,
2013-10-02 13:19:00,85.1,70.6,29.80,SSE,164,2.0,6.0,62,0.00,,,0.01,Wunderground v.1.15,2013-10-02 18:19:00,
2013-10-02 13:22:00,84.9,70.4,29.80,SE,144,3.0,6.0,62,0.00,,,0.01,Wunderground v.1.15,2013-10-02 18:22:00,
2013-10-02 13:24:00,84.7,70.2,29.80,SE,141,3.0,6.0,62,0.00,,,0.01,Wunderground v.1.15,2013-10-02 18:24:00,
2013-10-02 13:26:00,84.9,70.9,29.80,SSE,167,4.0,6.0,63,0.00,,,0.01,Wunderground v.1.15,2013-10-02 18:26:00,
2013-10-02 13:27:00,85.1,71.1,29.80,SSE,167,4.0,6.0,63,0.00,,,0.01,Wunderground v.1.15,2013-10-02 18:27:00,
2013-10-02 13:29:00,85.7,71.2,29.80,SE,134,3.0,8.0,62,0.00,,,0.01,Wunderground v.1.15,2013-10-02 18:29:00,
2013-10-02 13:32:00,85.9,70.4,29.80,SE,141,4.0,4.0,60,0.00,,,0.01,Wunderground v.1.15,2013-10-02 18:32:00,
2013-10-02 13:34:00,85.9,69.9,29.80,South,178,4.0,7.0,59,0.00,,,0.01,Wunderground v.1.15,2013-10-02 18:34:00,
2013-10-02 13:36:00,86.3,70.8,29.80,South,178,3.0,7.0,60,0.00,,,0.01,Wunderground v.1.15,2013-10-02 18:36:00,
2013-10-02 13:38:00,86.3,70.3,29.80,South,182,4.0,7.0,59,0.00,,,0.01,Wunderground v.1.15,2013-10-02 18:38:00,
2013-10-02 13:39:00,86.3,70.3,29.80,SE,127,4.0,7.0,59,0.00,,,0.01,Wunderground v.1.15,2013-10-02 18:39:00,
2013-10-02 13:42:00,85.7,69.7,29.80,SE,130,3.0,7.0,59,0.00,,,0.01,Wunderground v.1.15,2013-10-02 18:42:00,
2013-10-02 13:44:00,85.3,69.8,29.80,East,95,3.0,8.0,60,0.00,,,0.01,Wunderground v.1.15,2013-10-02 18:44:00,
2013-10-02 13:45:00,85.3,70.8,29.80,East,96,3.0,8.0,62,0.00,,,0.01,Wunderground v.1.15,2013-10-02 18:45:00,
2013-10-02 13:52:00,86.3,71.3,29.78,SSE,158,4.0,8.0,61,0.00,,,0.01,Wunderground v.1.15,2013-10-02 18:52:00,
2013-10-02 13:55:00,86.3,70.3,29.78,SSW,193,5.0,12.0,59,0.00,,,0.01,Wunderground v.1.15,2013-10-02 18:55:00,
2013-10-02 13:56:00,86.3,70.3,29.78,SSW,193,5.0,12.0,59,0.00,,,0.01,Wunderground v.1.15,2013-10-02 18:56:00,
2013-10-02 13:57:00,86.3,70.3,29.78,SE,124,5.0,12.0,59,0.00,,,0.01,Wunderground v.1.15,2013-10-02 18:57:00,
2013-10-02 13:58:00,85.9,69.9,29.78,ESE,106,4.0,12.0,59,0.00,,,0.01,Wunderground v.1.15,2013-10-02 18:58:00,
2013-10-02 14:03:00,85.7,70.2,29.78,SE,128,3.0,8.0,60,0.00,,,0.01,Wunderground v.1.15,2013-10-02 19:03:00,
2013-10-02 14:04:00,85.9,69.9,29.78,ESE,120,4.0,8.0,59,0.00,,,0.01,Wunderground v.1.15,2013-10-02 19:04:00,
2013-10-02 14:05:00,85.9,68.9,29.78,SE,130,4.0,8.0,57,0.00,,,0.01,Wunderground v.1.15,2013-10-02 19:05:00,
2013-10-02 14:12:00,87.6,70.0,29.78,SE,143,4.0,8.0,56,0.00,,,0.01,Wunderground v.1.15,2013-10-02 19:12:00,
2013-10-02 14:13:00,87.4,70.3,29.78,SSE,161,4.0,10.0,57,0.00,,,0.01,Wunderground v.1.15,2013-10-02 19:13:00,
2013-10-02 14:14:00,87.4,70.3,29.78,SE,131,3.0,10.0,57,0.00,,,0.01,Wunderground v.1.15,2013-10-02 19:14:00,
2013-10-02 14:15:00,87.4,70.8,29.78,SSW,209,3.0,10.0,58,0.00,,,0.01,Wunderground v.1.15,2013-10-02 19:15:00,
2013-10-02 14:17:00,87.4,70.3,29.77,South,175,4.0,10.0,57,0.00,,,0.01,Wunderground v.1.15,2013-10-02 19:17:00,
2013-10-02 14:18:00,87.6,70.0,29.77,South,185,3.0,10.0,56,0.00,,,0.01,Wunderground v.1.15,2013-10-02 19:18:00,
2013-10-02 14:22:00,87.8,69.6,29.77,SE,128,3.0,7.0,55,0.00,,,0.01,Wunderground v.1.15,2013-10-02 19:22:00,
2013-10-02 14:23:00,87.8,70.1,29.77,SSE,154,3.0,8.0,56,0.00,,,0.01,Wunderground v.1.15,2013-10-02 19:23:00,
2013-10-02 14:24:00,87.6,69.4,29.77,South,184,3.0,8.0,55,0.00,,,0.01,Wunderground v.1.15,2013-10-02 19:24:00,
2013-10-02 14:26:00,87.4,69.3,29.77,SSE,154,3.0,8.0,55,0.00,,,0.01,Wunderground v.1.15,2013-10-02 19:26:00,
2013-10-02 14:29:00,86.7,69.1,29.77,South,179,4.0,8.0,56,0.00,,,0.01,Wunderground v.1.15,2013-10-02 19:29:00,
2013-10-02 14:32:00,86.3,69.3,29.76,SSE,158,4.0,5.0,57,0.00,,,0.01,Wunderground v.1.15,2013-10-02 19:32:00,
2013-10-02 14:34:00,86.1,69.6,29.76,SE,143,4.0,5.0,58,0.00,,,0.01,Wunderground v.1.15,2013-10-02 19:34:00,
2013-10-02 14:35:00,86.1,69.6,29.76,SE,138,4.0,5.0,58,0.00,,,0.01,Wunderground v.1.15,2013-10-02 19:35:00,
2013-10-02 14:37:00,86.3,68.8,29.76,South,182,4.0,5.0,56,0.00,,,0.01,Wunderground v.1.15,2013-10-02 19:37:00,
2013-10-02 14:38:00,86.3,69.3,29.76,SE,136,5.0,12.0,57,0.00,,,0.01,Wunderground v.1.15,2013-10-02 19:38:00,
2013-10-02 14:42:00,86.7,69.6,29.76,ESE,120,4.0,6.0,57,0.00,,,0.01,Wunderground v.1.15,2013-10-02 19:42:00,
2013-10-02 14:43:00,86.5,69.5,29.76,ESE,121,4.0,6.0,57,0.00,,,0.01,Wunderground v.1.15,2013-10-02 19:43:00,
2013-10-02 14:45:00,86.5,68.9,29.76,SE,133,4.0,7.0,56,0.00,,,0.01,Wunderground v.1.15,2013-10-02 19:45:00,
2013-10-02 14:47:00,86.7,69.6,29.75,SE,136,4.0,7.0,57,0.00,,,0.01,Wunderground v.1.15,2013-10-02 19:47:00,
2013-10-02 14:48:00,86.7,69.1,29.75,South,174,4.0,7.0,56,0.00,,,0.01,Wunderground v.1.15,2013-10-02 19:48:00,
2013-10-02 14:49:00,86.7,69.1,29.75,ESE,119,4.0,7.0,56,0.00,,,0.01,Wunderground v.1.15,2013-10-02 19:49:00,
2013-10-02 14:52:00,86.7,69.1,29.75,South,172,3.0,5.0,56,0.00,,,0.01,Wunderground v.1.15,2013-10-02 19:52:00,
2013-10-02 14:53:00,86.7,69.1,29.75,ESE,114,3.0,7.0,56,0.00,,,0.01,Wunderground v.1.15,2013-10-02 19:53:00,
2013-10-02 14:56:00,87.0,69.9,29.75,SE,137,4.0,8.0,57,0.00,,,0.01,Wunderground v.1.15,2013-10-02 19:56:00,
2013-10-02 14:58:00,86.7,69.1,29.75,SE,133,5.0,8.0,56,0.00,,,0.01,Wunderground v.1.15,2013-10-02 19:58:00,
2013-10-02 15:02:00,87.2,69.1,29.74,SSE,164,5.0,6.0,55,0.00,,,0.01,Wunderground v.1.15,2013-10-02 20:02:00,
2013-10-02 15:03:00,87.4,69.3,29.74,SSE,147,5.0,6.0,55,0.00,,,0.01,Wunderground v.1.15,2013-10-02 20:03:00,
2013-10-02 15:06:00,87.6,68.9,29.74,SE,145,5.0,7.0,54,0.00,,,0.01,Wunderground v.1.15,2013-10-02 20:06:00,
2013-10-02 15:08:00,87.6,69.4,29.74,ESE,121,5.0,7.0,55,0.00,,,0.01,Wunderground v.1.15,2013-10-02 20:08:00,
2013-10-02 15:12:00,88.0,69.3,29.74,SSE,167,5.0,5.0,54,0.00,,,0.01,Wunderground v.1.15,2013-10-02 20:12:00,
2013-10-02 15:13:00,88.2,69.5,29.74,SSW,206,4.0,6.0,54,0.00,,,0.01,Wunderground v.1.15,2013-10-02 20:13:00,
2013-10-02 15:16:00,88.8,68.9,29.74,South,186,4.0,6.0,52,0.00,,,0.01,Wunderground v.1.15,2013-10-02 20:16:00,
2013-10-02 15:17:00,88.8,68.3,29.74,SSW,192,4.0,6.0,51,0.00,,,0.01,Wunderground v.1.15,2013-10-02 20:17:00,
2013-10-02 15:18:00,89.0,68.5,29.74,SSW,193,3.0,6.0,51,0.00,,,0.01,Wunderground v.1.15,2013-10-02 20:18:00,
2013-10-02 15:19:00,89.3,69.4,29.74,South,178,3.0,6.0,52,0.00,,,0.01,Wunderground v.1.15,2013-10-02 20:19:00,
2013-10-02 15:22:00,89.5,69.5,29.74,SW,222,4.0,4.0,52,0.00,,,0.01,Wunderground v.1.15,2013-10-02 20:22:00,
2013-10-02 15:23:00,89.7,69.7,29.74,SW,226,3.0,7.0,52,0.00,,,0.01,Wunderground v.1.15,2013-10-02 20:23:00,
2013-10-02 15:24:00,89.7,69.2,29.74,SSW,200,4.0,7.0,51,0.00,,,0.01,Wunderground v.1.15,2013-10-02 20:24:00,
2013-10-02 15:25:00,89.7,68.6,29.74,SW,219,4.0,8.0,50,0.00,,,0.01,Wunderground v.1.15,2013-10-02 20:25:00,
2013-10-02 15:27:00,89.7,69.2,29.74,SSW,205,4.0,8.0,51,0.00,,,0.01,Wunderground v.1.15,2013-10-02 20:27:00,
2013-10-02 15:28:00,89.7,69.2,29.74,SSE,168,4.0,8.0,51,0.00,,,0.01,Wunderground v.1.15,2013-10-02 20:28:00,
2013-10-02 15:29:00,89.5,69.0,29.74,SSW,212,4.0,8.0,51,0.00,,,0.01,Wunderground v.1.15,2013-10-02 20:29:00,
2013-10-02 15:33:00,88.8,68.9,29.74,SE,133,4.0,11.0,52,0.00,,,0.01,Wunderground v.1.15,2013-10-02 20:33:00,
2013-10-02 15:34:00,88.6,68.7,29.74,SSE,148,4.0,11.0,52,0.00,,,0.01,Wunderground v.1.15,2013-10-02 20:34:00,
2013-10-02 15:35:00,88.6,68.2,29.74,South,172,4.0,11.0,51,0.00,,,0.01,Wunderground v.1.15,2013-10-02 20:35:00,
2013-10-02 15:37:00,88.4,68.5,29.74,SE,144,5.0,11.0,52,0.00,,,0.01,Wunderground v.1.15,2013-10-02 20:37:00,
2013-10-02 15:38:00,88.4,68.5,29.74,SSW,192,5.0,11.0,52,0.00,,,0.01,Wunderground v.1.15,2013-10-02 20:38:00,
2013-10-02 15:42:00,88.2,68.4,29.74,SE,138,6.0,12.0,52,0.00,,,0.01,Wunderground v.1.15,2013-10-02 20:42:00,
2013-10-02 15:44:00,88.4,69.1,29.74,SSW,203,5.0,12.0,53,0.00,,,0.01,Wunderground v.1.15,2013-10-02 20:44:00,
2013-10-02 15:45:00,88.6,69.3,29.74,South,175,6.0,12.0,53,0.00,,,0.01,Wunderground v.1.15,2013-10-02 20:45:00,
2013-10-02 15:52:00,89.5,69.0,29.73,SW,230,4.0,7.0,51,0.00,,,0.01,Wunderground v.1.15,2013-10-02 20:52:00,
2013-10-02 15:56:00,89.3,68.8,29.73,SE,140,4.0,8.0,51,0.00,,,0.01,Wunderground v.1.15,2013-10-02 20:56:00,
2013-10-02 15:57:00,89.0,69.1,29.73,East,89,4.0,8.0,52,0.00,,,0.01,Wunderground v.1.15,2013-10-02 20:57:00,
2013-10-02 15:58:00,89.0,68.5,29.73,SE,144,5.0,8.0,51,0.00,,,0.01,Wunderground v.1.15,2013-10-02 20:58:00,
2013-10-02 16:02:00,88.2,68.4,29.74,South,179,5.0,5.0,52,0.00,,,0.01,Wunderground v.1.15,2013-10-02 21:02:00,
2013-10-02 16:03:00,88.0,68.7,29.74,SE,145,5.0,5.0,53,0.00,,,0.01,Wunderground v.1.15,2013-10-02 21:03:00,
2013-10-02 16:07:00,88.0,68.2,29.74,SSW,195,4.0,8.0,52,0.00,,,0.01,Wunderground v.1.15,2013-10-02 21:07:00,
2013-10-02 16:08:00,88.2,68.4,29.74,SE,143,3.0,8.0,52,0.00,,,0.01,Wunderground v.1.15,2013-10-02 21:08:00,
2013-10-02 16:09:00,88.2,68.4,29.74,SE,143,3.0,8.0,52,0.00,,,0.01,Wunderground v.1.15,2013-10-02 21:09:00,
2013-10-02 16:12:00,88.8,68.9,29.74,South,172,2.0,3.0,52,0.00,,,0.01,Wunderground v.1.15,2013-10-02 21:12:00,
2013-10-02 16:13:00,89.0,68.5,29.74,SSW,196,2.0,5.0,51,0.00,,,0.01,Wunderground v.1.15,2013-10-02 21:13:00,
2013-10-02 16:15:00,89.0,68.5,29.74,SE,124,2.0,5.0,51,0.00,,,0.01,Wunderground v.1.15,2013-10-02 21:15:00,
2013-10-02 16:18:00,88.8,68.3,29.74,SE,134,3.0,11.0,51,0.00,,,0.01,Wunderground v.1.15,2013-10-02 21:18:00,
2013-10-02 16:19:00,88.4,68.0,29.74,South,171,4.0,11.0,51,0.00,,,0.01,Wunderground v.1.15,2013-10-02 21:19:00,
2013-10-02 16:22:00,87.8,68.0,29.74,SE,131,5.0,7.0,52,0.00,,,0.01,Wunderground v.1.15,2013-10-02 21:22:00,
2013-10-02 16:24:00,87.6,68.4,29.74,South,179,6.0,7.0,53,0.00,,,0.01,Wunderground v.1.15,2013-10-02 21:24:00,
2013-10-02 16:26:00,87.4,68.2,29.74,SE,131,5.0,7.0,53,0.00,,,0.01,Wunderground v.1.15,2013-10-02 21:26:00,
2013-10-02 16:27:00,87.4,68.2,29.74,SE,133,5.0,7.0,53,0.00,,,0.01,Wunderground v.1.15,2013-10-02 21:27:00,
2013-10-02 16:32:00,87.2,68.0,29.74,SE,140,3.0,3.0,53,0.00,,,0.01,Wunderground v.1.15,2013-10-02 21:32:00,
2013-10-02 16:33:00,87.2,68.5,29.74,SE,136,2.0,3.0,54,0.00,,,0.01,Wunderground v.1.15,2013-10-02 21:33:00,
2013-10-02 16:36:00,87.4,68.7,29.74,ESE,117,2.0,5.0,54,0.00,,,0.01,Wunderground v.1.15,2013-10-02 21:36:00,
2013-10-02 16:37:00,87.4,68.2,29.74,SE,127,2.0,5.0,53,0.00,,,0.01,Wunderground v.1.15,2013-10-02 21:37:00,
2013-10-02 16:38:00,87.4,68.2,29.74,SE,131,3.0,11.0,53,0.00,,,0.01,Wunderground v.1.15,2013-10-02 21:38:00,
2013-10-02 16:39:00,87.4,68.2,29.74,South,179,3.0,11.0,53,0.00,,,0.01,Wunderground v.1.15,2013-10-02 21:39:00,
2013-10-02 16:42:00,87.4,68.2,29.74,SE,130,4.0,7.0,53,0.00,,,0.01,Wunderground v.1.15,2013-10-02 21:42:00,
2013-10-02 16:43:00,87.4,68.2,29.74,SSW,195,4.0,7.0,53,0.00,,,0.01,Wunderground v.1.15,2013-10-02 21:43:00,
2013-10-02 16:44:00,87.4,68.7,29.74,South,175,4.0,7.0,54,0.00,,,0.01,Wunderground v.1.15,2013-10-02 21:44:00,
2013-10-02 16:45:00,87.4,68.7,29.74,SSE,147,4.0,7.0,54,0.00,,,0.01,Wunderground v.1.15,2013-10-02 21:45:00,
2013-10-02 16:46:00,87.4,68.7,29.74,SE,144,4.0,7.0,54,0.00,,,0.01,Wunderground v.1.15,2013-10-02 21:46:00,
2013-10-02 16:49:00,87.0,67.8,29.74,SE,143,4.0,8.0,53,0.00,,,0.01,Wunderground v.1.15,2013-10-02 21:49:00,
2013-10-02 16:52:00,86.7,68.1,29.74,SSE,147,4.0,4.0,54,0.00,,,0.01,Wunderground v.1.15,2013-10-02 21:52:00,
2013-10-02 16:54:00,86.7,68.1,29.74,ESE,120,4.0,5.0,54,0.00,,,0.01,Wunderground v.1.15,2013-10-02 21:54:00,
2013-10-02 16:55:00,86.7,68.1,29.74,SE,127,4.0,5.0,54,0.00,,,0.01,Wunderground v.1.15,2013-10-02 21:55:00,
2013-10-02 16:57:00,86.7,68.1,29.74,South,179,4.0,5.0,54,0.00,,,0.01,Wunderground v.1.15,2013-10-02 21:57:00,
2013-10-02 16:58:00,86.7,68.1,29.74,SSW,192,4.0,6.0,54,0.00,,,0.01,Wunderground v.1.15,2013-10-02 21:58:00,
2013-10-02 17:02:00,87.4,68.2,29.74,ESE,117,4.0,5.0,53,0.00,,,0.01,Wunderground v.1.15,2013-10-02 22:02:00,
2013-10-02 17:04:00,87.6,68.4,29.74,SSE,147,5.0,11.0,53,0.00,,,0.01,Wunderground v.1.15,2013-10-02 22:04:00,
2013-10-02 17:05:00,87.6,67.8,29.74,SE,140,5.0,11.0,52,0.00,,,0.01,Wunderground v.1.15,2013-10-02 22:05:00,
2013-10-02 17:06:00,87.6,67.8,29.74,SE,133,5.0,11.0,52,0.00,,,0.01,Wunderground v.1.15,2013-10-02 22:06:00,
2013-10-02 17:07:00,87.4,67.6,29.74,SSW,193,5.0,11.0,52,0.00,,,0.01,Wunderground v.1.15,2013-10-02 22:07:00,
2013-10-02 17:08:00,87.4,67.6,29.74,South,185,5.0,11.0,52,0.00,,,0.01,Wunderground v.1.15,2013-10-02 22:08:00,
2013-10-02 17:09:00,87.4,67.6,29.74,SSE,167,5.0,11.0,52,0.00,,,0.01,Wunderground v.1.15,2013-10-02 22:09:00,
2013-10-02 17:12:00,87.6,68.4,29.74,SE,130,4.0,6.0,53,0.00,,,0.01,Wunderground v.1.15,2013-10-02 22:12:00,
2013-10-02 17:13:00,87.6,68.4,29.74,ESE,116,4.0,9.0,53,0.00,,,0.01,Wunderground v.1.15,2013-10-02 22:13:00,
2013-10-02 17:14:00,87.8,68.0,29.74,ESE,123,4.0,9.0,52,0.00,,,0.01,Wunderground v.1.15,2013-10-02 22:14:00,
2013-10-02 17:16:00,87.6,67.8,29.74,South,171,4.0,10.0,52,0.00,,,0.01,Wunderground v.1.15,2013-10-02 22:16:00,
2013-10-02 17:17:00,87.6,67.8,29.74,SE,140,5.0,10.0,52,0.00,,,0.01,Wunderground v.1.15,2013-10-02 22:17:00,
2013-10-02 17:18:00,87.6,67.8,29.74,SSE,150,5.0,10.0,52,0.00,,,0.01,Wunderground v.1.15,2013-10-02 22:18:00,
2013-10-02 17:22:00,87.8,68.0,29.74,ESE,117,5.0,6.0,52,0.00,,,0.01,Wunderground v.1.15,2013-10-02 22:22:00,
2013-10-02 17:23:00,87.8,68.0,29.74,SE,143,5.0,6.0,52,0.00,,,0.01,Wunderground v.1.15,2013-10-02 22:23:00,
2013-10-02 17:24:00,87.6,67.8,29.74,SSE,155,5.0,6.0,52,0.00,,,0.01,Wunderground v.1.15,2013-10-02 22:24:00,
2013-10-02 17:28:00,87.8,68.5,29.74,SE,134,5.0,8.0,53,0.00,,,0.01,Wunderground v.1.15,2013-10-02 22:28:00,
2013-10-02 17:29:00,87.6,68.4,29.74,SE,126,5.0,8.0,53,0.00,,,0.01,Wunderground v.1.15,2013-10-02 22:29:00,
2013-10-02 17:32:00,87.4,68.7,29.73,SE,131,5.0,5.0,54,0.00,,,0.01,Wunderground v.1.15,2013-10-02 22:32:00,
2013-10-02 17:34:00,87.2,68.5,29.73,SE,136,4.0,5.0,54,0.00,,,0.01,Wunderground v.1.15,2013-10-02 22:34:00,
2013-10-02 17:35:00,87.0,68.3,29.73,SSE,160,5.0,5.0,54,0.00,,,0.01,Wunderground v.1.15,2013-10-02 22:35:00,
2013-10-02 17:37:00,87.0,68.3,29.73,East,96,4.0,5.0,54,0.00,,,0.01,Wunderground v.1.15,2013-10-02 22:37:00,
2013-10-02 17:39:00,87.0,68.3,29.73,ESE,113,5.0,6.0,54,0.00,,,0.01,Wunderground v.1.15,2013-10-02 22:39:00,
2013-10-02 17:44:00,87.0,68.3,29.73,SE,138,5.0,11.0,54,0.00,,,0.01,Wunderground v.1.15,2013-10-02 22:44:00,
2013-10-02 17:45:00,87.0,67.8,29.73,SE,124,5.0,11.0,53,0.00,,,0.01,Wunderground v.1.15,2013-10-02 22:45:00,
2013-10-02 17:48:00,87.0,68.3,29.73,SE,127,5.0,11.0,54,0.00,,,0.01,Wunderground v.1.15,2013-10-02 22:48:00,
2013-10-02 17:49:00,87.0,68.3,29.73,ESE,110,5.0,11.0,54,0.00,,,0.01,Wunderground v.1.15,2013-10-02 22:49:00,
2013-10-02 17:52:00,87.0,68.3,29.73,SE,126,6.0,9.0,54,0.00,,,0.01,Wunderground v.1.15,2013-10-02 22:52:00,
2013-10-02 17:53:00,87.0,68.3,29.73,SE,128,6.0,9.0,54,0.00,,,0.01,Wunderground v.1.15,2013-10-02 22:53:00,
2013-10-02 17:55:00,87.0,68.3,29.73,ESE,107,5.0,9.0,54,0.00,,,0.01,Wunderground v.1.15,2013-10-02 22:55:00,
2013-10-02 17:56:00,86.7,68.6,29.73,ESE,104,5.0,9.0,55,0.00,,,0.01,Wunderground v.1.15,2013-10-02 22:56:00,
2013-10-02 17:57:00,86.7,68.1,29.73,SSE,157,5.0,9.0,54,0.00,,,0.01,Wunderground v.1.15,2013-10-02 22:57:00,
2013-10-02 17:59:00,86.7,68.6,29.73,ESE,116,6.0,9.0,55,0.00,,,0.01,Wunderground v.1.15,2013-10-02 22:59:00,
2013-10-02 18:02:00,86.5,68.4,29.73,SE,128,6.0,6.0,55,0.00,,,0.01,Wunderground v.1.15,2013-10-02 23:02:00,
2013-10-02 18:04:00,86.5,68.4,29.73,East,99,5.0,6.0,55,0.00,,,0.01,Wunderground v.1.15,2013-10-02 23:04:00,
2013-10-02 18:05:00,86.5,68.4,29.73,ESE,123,5.0,6.0,55,0.00,,,0.01,Wunderground v.1.15,2013-10-02 23:05:00,
2013-10-02 18:06:00,86.7,68.6,29.73,SE,124,5.0,6.0,55,0.00,,,0.01,Wunderground v.1.15,2013-10-02 23:06:00,
2013-10-02 18:07:00,86.7,68.6,29.73,SE,126,4.0,6.0,55,0.00,,,0.01,Wunderground v.1.15,2013-10-02 23:07:00,
2013-10-02 18:09:00,86.7,68.1,29.73,SE,130,4.0,7.0,54,0.00,,,0.01,Wunderground v.1.15,2013-10-02 23:09:00,
2013-10-02 18:12:00,86.7,68.1,29.73,SSE,162,3.0,6.0,54,0.00,,,0.01,Wunderground v.1.15,2013-10-02 23:12:00,
2013-10-02 18:13:00,86.7,68.6,29.73,SE,140,3.0,6.0,55,0.00,,,0.01,Wunderground v.1.15,2013-10-02 23:13:00,
2013-10-02 18:14:00,86.7,68.6,29.73,SE,141,3.0,6.0,55,0.00,,,0.01,Wunderground v.1.15,2013-10-02 23:14:00,
2013-10-02 18:18:00,86.5,67.9,29.73,SE,136,4.0,6.0,54,0.00,,,0.01,Wunderground v.1.15,2013-10-02 23:18:00,
2013-10-02 18:19:00,86.5,67.9,29.73,SSE,150,4.0,11.0,54,0.00,,,0.01,Wunderground v.1.15,2013-10-02 23:19:00,
2013-10-02 18:22:00,86.3,68.2,29.73,SE,131,4.0,4.0,55,0.00,,,0.01,Wunderground v.1.15,2013-10-02 23:22:00,
2013-10-02 18:24:00,86.3,68.2,29.73,SE,131,4.0,8.0,55,0.00,,,0.01,Wunderground v.1.15,2013-10-02 23:24:00,
2013-10-02 18:28:00,86.3,68.2,29.73,SE,143,4.0,8.0,55,0.00,,,0.01,Wunderground v.1.15,2013-10-02 23:28:00,
2013-10-02 18:29:00,86.3,68.2,29.73,SE,126,4.0,8.0,55,0.00,,,0.01,Wunderground v.1.15,2013-10-02 23:29:00,
2013-10-02 18:32:00,86.1,68.0,29.73,ESE,112,4.0,4.0,55,0.00,,,0.01,Wunderground v.1.15,2013-10-02 23:32:00,
2013-10-02 18:35:00,86.1,68.0,29.73,ESE,116,4.0,4.0,55,0.00,,,0.01,Wunderground v.1.15,2013-10-02 23:35:00,
2013-10-02 18:37:00,86.1,68.0,29.73,SSE,151,3.0,4.0,55,0.00,,,0.01,Wunderground v.1.15,2013-10-02 23:37:00,
2013-10-02 18:39:00,86.1,68.0,29.73,ESE,121,3.0,6.0,55,0.00,,,0.01,Wunderground v.1.15,2013-10-02 23:39:00,
2013-10-02 18:43:00,85.9,67.9,29.73,SE,133,3.0,6.0,55,0.00,,,0.01,Wunderground v.1.15,2013-10-02 23:43:00,
2013-10-02 18:44:00,85.9,67.9,29.73,SE,133,3.0,6.0,55,0.00,,,0.01,Wunderground v.1.15,2013-10-02 23:44:00,
2013-10-02 18:48:00,85.7,67.7,29.73,SE,130,3.0,6.0,55,0.00,,,0.01,Wunderground v.1.15,2013-10-02 23:48:00,
2013-10-02 18:49:00,85.7,67.7,29.73,SE,130,3.0,6.0,55,0.00,,,0.01,Wunderground v.1.15,2013-10-02 23:49:00,
2013-10-02 18:52:00,85.7,67.7,29.73,SE,134,3.0,3.0,55,0.00,,,0.01,Wunderground v.1.15,2013-10-02 23:52:00,
2013-10-02 18:53:00,85.5,67.5,29.73,SE,133,3.0,6.0,55,0.00,,,0.01,Wunderground v.1.15,2013-10-02 23:53:00,
2013-10-02 18:54:00,85.5,67.5,29.73,SE,130,3.0,6.0,55,0.00,,,0.01,Wunderground v.1.15,2013-10-02 23:54:00,
2013-10-02 18:59:00,85.3,67.8,29.73,SE,134,3.0,6.0,56,0.00,,,0.01,Wunderground v.1.15,2013-10-02 23:59:00,
2013-10-02 19:02:00,85.1,67.6,29.73,SE,137,3.0,3.0,56,0.00,,,0.01,Wunderground v.1.15,2013-10-03 00:02:00,
2013-10-02 19:05:00,85.1,68.2,29.73,SE,138,2.0,3.0,57,0.00,,,0.01,Wunderground v.1.15,2013-10-03 00:05:00,
2013-10-02 19:07:00,84.9,68.0,29.73,SE,133,2.0,4.0,57,0.00,,,0.01,Wunderground v.1.15,2013-10-03 00:07:00,
2013-10-02 19:08:00,84.9,68.0,29.73,SE,133,2.0,4.0,57,0.00,,,0.01,Wunderground v.1.15,2013-10-03 00:08:00,
2013-10-02 19:12:00,84.7,67.8,29.73,SE,134,2.0,2.0,57,0.00,,,0.01,Wunderground v.1.15,2013-10-03 00:12:00,
2013-10-02 19:15:00,84.5,67.6,29.73,SE,134,2.0,2.0,57,0.00,,,0.01,Wunderground v.1.15,2013-10-03 00:15:00,
2013-10-02 19:18:00,84.5,67.6,29.73,SE,131,1.0,5.0,57,0.00,,,0.01,Wunderground v.1.15,2013-10-03 00:18:00,
2013-10-02 19:19:00,84.3,67.4,29.73,SE,131,2.0,6.0,57,0.00,,,0.01,Wunderground v.1.15,2013-10-03 00:19:00,
2013-10-02 19:22:00,84.3,67.4,29.73,SE,130,2.0,3.0,57,0.00,,,0.01,Wunderground v.1.15,2013-10-03 00:22:00,
2013-10-02 19:24:00,84.1,67.7,29.73,SE,131,2.0,3.0,58,0.00,,,0.01,Wunderground v.1.15,2013-10-03 00:24:00,
2013-10-02 19:27:00,84.1,67.7,29.73,SE,131,2.0,3.0,58,0.00,,,0.01,Wunderground v.1.15,2013-10-03 00:27:00,
2013-10-02 19:28:00,84.1,67.7,29.73,SE,131,2.0,3.0,58,0.00,,,0.01,Wunderground v.1.15,2013-10-03 00:28:00,
2013-10-02 19:29:00,84.0,67.6,29.73,SE,131,1.0,3.0,58,0.00,,,0.01,Wunderground v.1.15,2013-10-03 00:29:00,
2013-10-02 19:32:00,84.0,67.6,29.73,SE,131,1.0,1.0,58,0.00,,,0.01,Wunderground v.1.15,2013-10-03 00:32:00,
2013-10-02 19:33:00,84.0,67.6,29.73,SE,131,1.0,3.0,58,0.00,,,0.01,Wunderground v.1.15,2013-10-03 00:33:00,
2013-10-02 19:35:00,83.8,67.9,29.73,SE,131,1.0,3.0,59,0.00,,,0.01,Wunderground v.1.15,2013-10-03 00:35:00,
2013-10-02 19:36:00,83.8,67.9,29.73,SE,131,0.0,3.0,59,0.00,,,0.01,Wunderground v.1.15,2013-10-03 00:36:00,
2013-10-02 19:37:00,83.6,67.8,29.73,SE,131,1.0,3.0,59,0.00,,,0.01,Wunderground v.1.15,2013-10-03 00:37:00,
2013-10-02 19:38:00,83.6,67.8,29.73,SE,131,1.0,3.0,59,0.00,,,0.01,Wunderground v.1.15,2013-10-03 00:38:00,
2013-10-02 19:42:00,83.4,67.6,29.73,SE,131,0.0,0.0,59,0.00,,,0.01,Wunderground v.1.15,2013-10-03 00:42:00,
2013-10-02 19:44:00,83.4,67.6,29.73,SE,131,1.0,3.0,59,0.00,,,0.01,Wunderground v.1.15,2013-10-03 00:44:00,
2013-10-02 19:47:00,83.2,67.9,29.74,SE,131,1.0,3.0,60,0.00,,,0.01,Wunderground v.1.15,2013-10-03 00:47:00,
2013-10-02 19:48:00,83.2,67.9,29.74,SE,131,1.0,3.0,60,0.00,,,0.01,Wunderground v.1.15,2013-10-03 00:48:00,
2013-10-02 19:49:00,83.2,67.9,29.74,SE,131,1.0,3.0,60,0.00,,,0.01,Wunderground v.1.15,2013-10-03 00:49:00,
2013-10-02 19:53:00,83.0,67.7,29.74,SE,131,1.0,4.0,60,0.00,,,0.01,Wunderground v.1.15,2013-10-03 00:53:00,
2013-10-02 19:55:00,83.0,68.2,29.74,SE,131,1.0,4.0,61,0.00,,,0.01,Wunderground v.1.15,2013-10-03 00:55:00,
2013-10-02 19:56:00,83.0,68.2,29.74,SE,131,1.0,4.0,61,0.00,,,0.01,Wunderground v.1.15,2013-10-03 00:56:00,
2013-10-02 19:59:00,82.8,68.0,29.74,SE,131,1.0,4.0,61,0.00,,,0.01,Wunderground v.1.15,2013-10-03 00:59:00,
2013-10-02 20:02:00,82.8,68.0,29.74,SE,131,0.0,1.0,61,0.00,,,0.01,Wunderground v.1.15,2013-10-03 01:02:00,
2013-10-02 20:04:00,82.6,67.8,29.74,SE,131,0.0,1.0,61,0.00,,,0.01,Wunderground v.1.15,2013-10-03 01:04:00,
2013-10-02 20:05:00,82.6,67.8,29.74,SE,131,0.0,1.0,61,0.00,,,0.01,Wunderground v.1.15,2013-10-03 01:05:00,
2013-10-02 20:07:00,82.6,67.8,29.74,SE,131,0.0,1.0,61,0.00,,,0.01,Wunderground v.1.15,2013-10-03 01:07:00,
2013-10-02 20:12:00,82.4,68.1,29.74,SE,131,0.0,0.0,62,0.00,,,0.01,Wunderground v.1.15,2013-10-03 01:12:00,
2013-10-02 20:14:00,82.4,68.1,29.74,SE,131,0.0,0.0,62,0.00,,,0.01,Wunderground v.1.15,2013-10-03 01:14:00,
2013-10-02 20:16:00,82.2,67.9,29.74,SE,131,0.0,0.0,62,0.00,,,0.01,Wunderground v.1.15,2013-10-03 01:16:00,
2013-10-02 20:18:00,82.2,67.9,29.75,SE,131,0.0,1.0,62,0.00,,,0.01,Wunderground v.1.15,2013-10-03 01:18:00,
2013-10-02 20:19:00,82.2,67.9,29.75,SE,131,0.0,1.0,62,0.00,,,0.01,Wunderground v.1.15,2013-10-03 01:19:00,
2013-10-02 20:22:00,82.0,67.7,29.75,SE,131,0.0,0.0,62,0.00,,,0.01,Wunderground v.1.15,2013-10-03 01:22:00,
2013-10-02 20:23:00,82.0,67.7,29.75,SE,131,0.0,0.0,62,0.00,,,0.01,Wunderground v.1.15,2013-10-03 01:23:00,
2013-10-02 20:24:00,82.0,67.7,29.75,SE,131,0.0,1.0,62,0.00,,,0.01,Wunderground v.1.15,2013-10-03 01:24:00,
2013-10-02 20:27:00,81.8,68.0,29.75,SE,131,1.0,1.0,63,0.00,,,0.01,Wunderground v.1.15,2013-10-03 01:27:00,
2013-10-02 20:28:00,81.8,68.0,29.75,SE,131,1.0,2.0,63,0.00,,,0.01,Wunderground v.1.15,2013-10-03 01:28:00,
2013-10-02 20:29:00,81.8,68.0,29.75,SE,131,1.0,2.0,63,0.00,,,0.01,Wunderground v.1.15,2013-10-03 01:29:00,
2013-10-02 20:32:00,81.8,68.0,29.75,SE,131,0.0,0.0,63,0.00,,,0.01,Wunderground v.1.15,2013-10-03 01:32:00,
2013-10-02 20:33:00,81.6,67.8,29.75,SE,131,0.0,0.0,63,0.00,,,0.01,Wunderground v.1.15,2013-10-03 01:33:00,
2013-10-02 20:35:00,81.6,67.8,29.75,SE,131,0.0,1.0,63,0.00,,,0.01,Wunderground v.1.15,2013-10-03 01:35:00,
2013-10-02 20:36:00,81.6,67.8,29.75,SE,131,0.0,1.0,63,0.00,,,0.01,Wunderground v.1.15,2013-10-03 01:36:00,
2013-10-02 20:38:00,81.6,68.2,29.75,SE,131,0.0,1.0,64,0.00,,,0.01,Wunderground v.1.15,2013-10-03 01:38:00,
2013-10-02 20:39:00,81.6,68.2,29.75,SE,131,0.0,1.0,64,0.00,,,0.01,Wunderground v.1.15,2013-10-03 01:39:00,
2013-10-02 20:42:00,81.4,68.1,29.75,SE,131,0.0,0.0,64,0.00,,,0.01,Wunderground v.1.15,2013-10-03 01:42:00,
2013-10-02 20:44:00,81.4,68.1,29.75,SE,131,0.0,1.0,64,0.00,,,0.01,Wunderground v.1.15,2013-10-03 01:44:00,
2013-10-02 20:45:00,81.4,68.1,29.75,SE,131,0.0,1.0,64,0.00,,,0.01,Wunderground v.1.15,2013-10-03 01:45:00,
2013-10-02 20:46:00,81.4,68.1,29.75,SE,131,0.0,1.0,64,0.00,,,0.01,Wunderground v.1.15,2013-10-03 01:46:00,
2013-10-02 20:48:00,81.2,67.9,29.75,SE,131,0.0,1.0,64,0.00,,,0.01,Wunderground v.1.15,2013-10-03 01:48:00,
2013-10-02 20:52:00,81.2,67.9,29.75,SE,131,0.0,0.0,64,0.00,,,0.01,Wunderground v.1.15,2013-10-03 01:52:00,
2013-10-02 20:54:00,81.2,67.9,29.75,SE,131,0.0,0.0,64,0.00,,,0.01,Wunderground v.1.15,2013-10-03 01:54:00,
2013-10-02 20:56:00,81.1,67.8,29.75,SE,131,0.0,0.0,64,0.00,,,0.01,Wunderground v.1.15,2013-10-03 01:56:00,
2013-10-02 21:02:00,81.1,68.2,29.76,SE,131,0.0,0.0,65,0.00,,,0.01,Wunderground v.1.15,2013-10-03 02:02:00,
2013-10-02 21:03:00,81.1,68.2,29.76,SE,131,0.0,2.0,65,0.00,,,0.01,Wunderground v.1.15,2013-10-03 02:03:00,
2013-10-02 21:04:00,81.1,68.2,29.76,SE,131,0.0,2.0,65,0.00,,,0.01,Wunderground v.1.15,2013-10-03 02:04:00,
2013-10-02 21:05:00,81.1,68.2,29.76,SE,131,0.0,2.0,65,0.00,,,0.01,Wunderground v.1.15,2013-10-03 02:05:00,
2013-10-02 21:09:00,80.9,68.0,29.76,SE,131,0.0,3.0,65,0.00,,,0.01,Wunderground v.1.15,2013-10-03 02:09:00,
2013-10-02 21:12:00,80.9,68.0,29.76,SE,131,1.0,1.0,65,0.00,,,0.01,Wunderground v.1.15,2013-10-03 02:12:00,
2013-10-02 21:14:00,80.9,68.0,29.76,SE,131,1.0,1.0,65,0.00,,,0.01,Wunderground v.1.15,2013-10-03 02:14:00,
2013-10-02 21:15:00,80.7,67.8,29.76,SE,131,1.0,1.0,65,0.00,,,0.01,Wunderground v.1.15,2013-10-03 02:15:00,
2013-10-02 21:17:00,80.7,67.8,29.77,SE,131,1.0,2.0,65,0.00,,,0.01,Wunderground v.1.15,2013-10-03 02:17:00,
2013-10-02 21:19:00,80.5,67.6,29.77,SE,131,1.0,2.0,65,0.00,,,0.01,Wunderground v.1.15,2013-10-03 02:19:00,
2013-10-02 21:22:00,80.5,67.6,29.77,SE,131,1.0,1.0,65,0.00,,,0.01,Wunderground v.1.15,2013-10-03 02:22:00,
2013-10-02 21:23:00,80.3,67.5,29.77,SE,131,1.0,1.0,65,0.00,,,0.01,Wunderground v.1.15,2013-10-03 02:23:00,
2013-10-02 21:24:00,80.3,67.5,29.77,SE,133,1.0,5.0,65,0.00,,,0.01,Wunderground v.1.15,2013-10-03 02:24:00,
2013-10-02 21:25:00,80.3,67.9,29.77,SE,131,1.0,5.0,66,0.00,,,0.01,Wunderground v.1.15,2013-10-03 02:25:00,
2013-10-02 21:27:00,80.3,67.9,29.77,ESE,123,1.0,5.0,66,0.00,,,0.01,Wunderground v.1.15,2013-10-03 02:27:00,
2013-10-02 21:29:00,80.3,68.3,29.77,SE,124,2.0,7.0,67,0.00,,,0.01,Wunderground v.1.15,2013-10-03 02:29:00,
2013-10-02 21:32:00,80.3,68.3,29.77,SSE,151,3.0,3.0,67,0.00,,,0.01,Wunderground v.1.15,2013-10-03 02:32:00,
2013-10-02 21:35:00,80.3,69.2,29.77,SE,138,3.0,5.0,69,0.00,,,0.01,Wunderground v.1.15,2013-10-03 02:35:00,
2013-10-02 21:36:00,80.3,69.2,29.77,SE,145,4.0,7.0,69,0.00,,,0.01,Wunderground v.1.15,2013-10-03 02:36:00,
2013-10-02 21:38:00,80.3,69.2,29.77,SSE,147,4.0,7.0,69,0.00,,,0.01,Wunderground v.1.15,2013-10-03 02:38:00,
2013-10-02 21:40:00,80.3,69.6,29.77,SE,127,4.0,7.0,70,0.00,,,0.01,Wunderground v.1.15,2013-10-03 02:40:00,
2013-10-02 21:42:00,80.1,70.3,29.77,SE,141,5.0,5.0,72,0.00,,,0.01,Wunderground v.1.15,2013-10-03 02:42:00,
2013-10-02 21:43:00,80.3,70.4,29.77,ESE,103,5.0,6.0,72,0.00,,,0.01,Wunderground v.1.15,2013-10-03 02:43:00,
2013-10-02 21:44:00,80.3,70.4,29.77,SE,124,5.0,7.0,72,0.00,,,0.01,Wunderground v.1.15,2013-10-03 02:44:00,
2013-10-02 21:47:00,80.1,70.3,29.78,SSE,148,5.0,7.0,72,0.00,,,0.01,Wunderground v.1.15,2013-10-03 02:47:00,
2013-10-02 21:48:00,80.1,70.3,29.78,SSE,147,5.0,7.0,72,0.00,,,0.01,Wunderground v.1.15,2013-10-03 02:48:00,
2013-10-02 21:49:00,80.1,70.7,29.78,SE,124,6.0,7.0,73,0.00,,,0.01,Wunderground v.1.15,2013-10-03 02:49:00,
2013-10-02 21:52:00,80.1,70.7,29.78,South,176,5.0,5.0,73,0.00,,,0.01,Wunderground v.1.15,2013-10-03 02:52:00,
2013-10-02 21:53:00,80.1,71.1,29.78,SE,141,5.0,11.0,74,0.00,,,0.01,Wunderground v.1.15,2013-10-03 02:53:00,
2013-10-02 21:55:00,80.1,71.1,29.78,SE,137,6.0,11.0,74,0.00,,,0.01,Wunderground v.1.15,2013-10-03 02:55:00,
2013-10-02 21:56:00,80.1,71.1,29.78,SE,140,6.0,11.0,74,0.00,,,0.01,Wunderground v.1.15,2013-10-03 02:56:00,
2013-10-02 21:57:00,80.1,71.1,29.78,SSE,147,6.0,11.0,74,0.00,,,0.01,Wunderground v.1.15,2013-10-03 02:57:00,
2013-10-02 22:00:00,80.1,71.1,29.78,SSE,161,6.0,11.0,74,0.00,,,0.01,Wunderground v.1.15,2013-10-03 03:00:00,
2013-10-02 22:02:00,79.9,71.3,29.78,ESE,120,6.0,13.0,75,0.00,,,0.01,Wunderground v.1.15,2013-10-03 03:02:00,
2013-10-02 22:03:00,79.9,71.3,29.78,SE,126,6.0,13.0,75,0.00,,,0.01,Wunderground v.1.15,2013-10-03 03:03:00,
2013-10-02 22:06:00,79.9,71.3,29.78,SSE,158,6.0,13.0,75,0.00,,,0.01,Wunderground v.1.15,2013-10-03 03:06:00,
2013-10-02 22:08:00,79.8,71.2,29.78,SE,124,6.0,13.0,75,0.00,,,0.01,Wunderground v.1.15,2013-10-03 03:08:00,
2013-10-02 22:12:00,79.8,71.2,29.78,SE,124,6.0,12.0,75,0.00,,,0.01,Wunderground v.1.15,2013-10-03 03:12:00,
2013-10-02 22:16:00,79.6,71.4,29.78,SE,140,5.0,12.0,76,0.00,,,0.01,Wunderground v.1.15,2013-10-03 03:16:00,
2013-10-02 22:17:00,79.6,71.4,29.78,SSE,155,5.0,12.0,76,0.00,,,0.01,Wunderground v.1.15,2013-10-03 03:17:00,
2013-10-02 22:22:00,79.6,71.8,29.78,SE,143,6.0,7.0,77,0.00,,,0.01,Wunderground v.1.15,2013-10-03 03:22:00,
2013-10-02 22:24:00,79.4,71.6,29.78,SSE,161,7.0,8.0,77,0.00,,,0.01,Wunderground v.1.15,2013-10-03 03:24:00,
2013-10-02 22:26:00,79.4,71.6,29.78,SSE,162,7.0,10.0,77,0.00,,,0.01,Wunderground v.1.15,2013-10-03 03:26:00,
2013-10-02 22:27:00,79.4,71.6,29.78,South,174,7.0,10.0,77,0.00,,,0.01,Wunderground v.1.15,2013-10-03 03:27:00,
2013-10-02 22:28:00,79.4,71.9,29.78,SE,136,7.0,10.0,78,0.00,,,0.01,Wunderground v.1.15,2013-10-03 03:28:00,
2013-10-02 22:30:00,79.2,71.7,29.78,ESE,113,7.0,10.0,78,0.00,,,0.01,Wunderground v.1.15,2013-10-03 03:30:00,
2013-10-02 22:32:00,79.2,71.7,29.79,SE,137,8.0,8.0,78,0.00,,,0.01,Wunderground v.1.15,2013-10-03 03:32:00,
2013-10-02 22:33:00,79.2,71.7,29.79,SE,140,7.0,8.0,78,0.00,,,0.01,Wunderground v.1.15,2013-10-03 03:33:00,
2013-10-02 22:36:00,79.0,71.9,29.79,SE,143,7.0,11.0,79,0.00,,,0.01,Wunderground v.1.15,2013-10-03 03:36:00,
2013-10-02 22:37:00,79.0,71.9,29.79,SE,141,6.0,11.0,79,0.00,,,0.01,Wunderground v.1.15,2013-10-03 03:37:00,
2013-10-02 22:40:00,79.0,71.9,29.79,SSE,155,6.0,11.0,79,0.00,,,0.01,Wunderground v.1.15,2013-10-03 03:40:00,
2013-10-02 22:42:00,78.8,71.7,29.79,SE,140,6.0,6.0,79,0.00,,,0.01,Wunderground v.1.15,2013-10-03 03:42:00,
2013-10-02 22:45:00,78.8,71.7,29.79,SSE,162,6.0,8.0,79,0.00,,,0.01,Wunderground v.1.15,2013-10-03 03:45:00,
2013-10-02 22:47:00,78.6,71.5,29.80,SE,140,6.0,8.0,79,0.00,,,0.01,Wunderground v.1.15,2013-10-03 03:47:00,
2013-10-02 22:48:00,78.6,71.5,29.80,SSE,164,6.0,8.0,79,0.00,,,0.01,Wunderground v.1.15,2013-10-03 03:48:00,
2013-10-02 22:50:00,78.6,71.9,29.80,SSE,151,5.0,15.0,80,0.00,,,0.01,Wunderground v.1.15,2013-10-03 03:50:00,
2013-10-02 22:52:00,78.6,71.9,29.80,SE,141,6.0,6.0,80,0.00,,,0.01,Wunderground v.1.15,2013-10-03 03:52:00,
2013-10-02 22:53:00,78.6,71.9,29.80,SE,131,6.0,6.0,80,0.00,,,0.01,Wunderground v.1.15,2013-10-03 03:53:00,
2013-10-02 22:56:00,78.5,71.8,29.80,SE,130,6.0,6.0,80,0.00,,,0.01,Wunderground v.1.15,2013-10-03 03:56:00,
2013-10-02 22:57:00,78.5,72.2,29.80,SE,141,6.0,12.0,81,0.00,,,0.01,Wunderground v.1.15,2013-10-03 03:57:00,
2013-10-02 22:59:00,78.5,72.2,29.80,SE,136,6.0,12.0,81,0.00,,,0.01,Wunderground v.1.15,2013-10-03 03:59:00,
2013-10-02 23:00:00,78.5,72.2,29.80,SE,136,6.0,12.0,81,0.00,,,0.01,Wunderground v.1.15,2013-10-03 04:00:00,
2013-10-02 23:02:00,78.5,72.2,29.80,SSE,148,6.0,6.0,81,0.00,,,0.01,Wunderground v.1.15,2013-10-03 04:02:00,
2013-10-02 23:03:00,78.5,72.2,29.80,SSE,154,6.0,6.0,81,0.00,,,0.01,Wunderground v.1.15,2013-10-03 04:03:00,
2013-10-02 23:09:00,78.5,72.2,29.80,SSE,155,6.0,10.0,81,0.00,,,0.01,Wunderground v.1.15,2013-10-03 04:09:00,
2013-10-02 23:12:00,78.5,72.5,29.80,SE,136,5.0,5.0,82,0.00,,,0.01,Wunderground v.1.15,2013-10-03 04:12:00,
2013-10-02 23:15:00,78.5,72.5,29.80,SE,136,5.0,5.0,82,0.00,,,0.01,Wunderground v.1.15,2013-10-03 04:15:00,
2013-10-02 23:18:00,78.5,72.5,29.79,SE,136,6.0,6.0,82,0.00,,,0.01,Wunderground v.1.15,2013-10-03 04:18:00,
2013-10-02 23:22:00,78.5,72.5,29.79,SE,136,2.0,2.0,82,0.00,,,0.01,Wunderground v.1.15,2013-10-03 04:22:00,
2013-10-02 23:23:00,-999.9,-99.9,29.79,North,32767,-999.0,2.0,255,-99.99,,,0.01,Wunderground v.1.15,2013-10-03 04:23:00,
2013-10-02 23:24:00,-999.9,-99.9,29.79,North,32767,-999.0,2.0,255,-99.99,,,0.01,Wunderground v.1.15,2013-10-03 04:24:00,
2013-10-02 23:26:00,-999.9,-99.9,29.79,North,32767,-999.0,2.0,255,-99.99,,,0.01,Wunderground v.1.15,2013-10-03 04:26:00,
2013-10-02 23:27:00,-999.9,-99.9,29.79,North,32767,-999.0,2.0,255,-99.99,,,0.01,Wunderground v.1.15,2013-10-03 04:27:00,
2013-10-02 23:28:00,-999.9,-99.9,29.79,North,32767,-999.0,2.0,255,-99.99,,,0.01,Wunderground v.1.15,2013-10-03 04:28:00,
2013-10-02 23:32:00,-999.9,-99.9,29.79,North,32767,-999.0,0.0,255,-99.99,,,0.01,Wunderground v.1.15,2013-10-03 04:32:00,
2013-10-02 23:33:00,-999.9,-99.9,29.79,North,32767,-999.0,0.0,255,-99.99,,,0.01,Wunderground v.1.15,2013-10-03 04:33:00,
2013-10-02 23:36:00,-999.9,-99.9,29.79,North,32767,-999.0,0.0,255,-99.99,,,0.01,Wunderground v.1.15,2013-10-03 04:36:00,
2013-10-02 23:38:00,-999.9,-99.9,29.79,North,32767,-999.0,0.0,255,-99.99,,,0.01,Wunderground v.1.15,2013-10-03 04:38:00,
2013-10-02 23:40:00,-999.9,-99.9,29.79,SSE,160,3.0,3.0,83,0.00,,,0.01,Wunderground v.1.15,2013-10-03 04:40:00,
2013-10-02 23:42:00,-999.9,-99.9,29.79,SSE,168,5.0,5.0,83,0.00,,,0.01,Wunderground v.1.15,2013-10-03 04:42:00,
2013-10-02 23:44:00,-999.9,-99.9,29.79,South,181,5.0,5.0,84,0.00,,,0.01,Wunderground v.1.15,2013-10-03 04:44:00,
2013-10-02 23:45:00,-999.9,-99.9,29.79,SE,133,9.0,9.0,84,0.00,,,0.01,Wunderground v.1.15,2013-10-03 04:45:00,
2013-10-02 23:49:00,77.7,72.5,29.79,SSE,155,6.0,9.0,84,0.00,,,0.01,Wunderground v.1.15,2013-10-03 04:49:00,
2013-10-02 23:52:00,77.7,72.5,29.79,SSE,155,6.0,6.0,84,0.00,,,0.01,Wunderground v.1.15,2013-10-03 04:52:00,
2013-10-02 23:53:00,77.7,72.5,29.79,SSE,155,6.0,6.0,84,0.00,,,0.01,Wunderground v.1.15,2013-10-03 04:53:00,
2013-10-02 23:55:00,77.7,72.5,29.79,SSE,155,6.0,6.0,84,0.00,,,0.01,Wunderground v.1.15,2013-10-03 04:55:00,
2013-10-02 23:58:00,77.7,72.5,29.79,SE,128,2.0,7.0,84,0.00,,,0.01,Wunderground v.1.15,2013-10-03 04:58:00,
2013-10-02 23:59:00,77.7,72.5,29.79,ESE,112,11.0,11.0,84,0.00,,,0.01,Wunderground v.1.15,2013-10-03 04:59:00,